Wetterdaten: Sonntag, 26.02.2017
Datum Zeit Temp. Aussen Temp. o. S. +5cm Feuchte Auss BlattFeu 1 Luftdruck Regen Sonnenschein Regendauer Solar Windben Empfang
26.02.2017 00:00 7,1 C 7,2 C 5,6 C 74 % 0 lf 1013,7 hPa 0,0 l/m 0 min 0 min 5 W/m 23,0 km/h (4 Bft) 93,62 %
26.02.2017 00:02 7,1 C 7,2 C 5,6 C 74 % 0 lf 1013,6 hPa 0,0 l/m 0 min 0 min 5 W/m 27,2 km/h (4 Bft) 92,31 %
26.02.2017 00:05 7,2 C 7,2 C 5,6 C 74 % 0 lf 1013,6 hPa 0,0 l/m 0 min 0 min 5 W/m 23,0 km/h (4 Bft) 97,30 %
26.02.2017 00:06 7,2 C 7,2 C 5,6 C 74 % 0 lf 1013,6 hPa 0,0 l/m 0 min 0 min 5 W/m 23,0 km/h (4 Bft) 95,83 %
26.02.2017 00:08 7,2 C 7,2 C 5,6 C 74 % 0 lf 1013,6 hPa 0,0 l/m 0 min 0 min 5 W/m 27,2 km/h (4 Bft) 95,74 %
26.02.2017 00:10 7,2 C 7,2 C 5,6 C 74 % 0 lf 1013,6 hPa 0,0 l/m 0 min 0 min 5 W/m 18,8 km/h (3 Bft) 97,87 %
26.02.2017 00:12 7,2 C 7,8 C 5,6 C 74 % 0 lf 1013,6 hPa 0,0 l/m 0 min 0 min 5 W/m 31,4 km/h (5 Bft) 97,83 %
26.02.2017 00:14 7,2 C 7,8 C 5,6 C 74 % 0 lf 1013,5 hPa 0,0 l/m 0 min 0 min 5 W/m 23,0 km/h (4 Bft) 95,74 %
26.02.2017 00:16 7,2 C 7,8 C 5,6 C 74 % 0 lf 1013,6 hPa 0,0 l/m 0 min 0 min 5 W/m 20,9 km/h (4 Bft) 97,87 %
26.02.2017 00:18 7,2 C 7,8 C 5,6 C 74 % 0 lf 1013,6 hPa 0,0 l/m 0 min 0 min 5 W/m 23,0 km/h (4 Bft) 93,62 %
26.02.2017 00:20 7,2 C 7,8 C 5,6 C 74 % 0 lf 1013,5 hPa 0,0 l/m 0 min 0 min 5 W/m 23,0 km/h (4 Bft) 95,74 %
26.02.2017 00:22 7,3 C 7,8 C 5,6 C 74 % 0 lf 1013,5 hPa 0,0 l/m 0 min 0 min 5 W/m 27,2 km/h (4 Bft) 95,74 %
26.02.2017 00:24 7,3 C 7,8 C 5,6 C 74 % 0 lf 1013,5 hPa 0,0 l/m 0 min 0 min 5 W/m 20,9 km/h (4 Bft) 97,83 %
26.02.2017 00:26 7,3 C 7,8 C 5,6 C 74 % 0 lf 1013,6 hPa 0,0 l/m 0 min 0 min 5 W/m 18,8 km/h (3 Bft) 91,49 %
26.02.2017 00:28 7,3 C 7,2 C 5,6 C 74 % 0 lf 1013,5 hPa 0,0 l/m 0 min 0 min 5 W/m 16,7 km/h (3 Bft) 93,62 %
26.02.2017 00:30 7,3 C 7,2 C 5,6 C 74 % 0 lf 1013,5 hPa 0,0 l/m 0 min 0 min 5 W/m 14,6 km/h (3 Bft) 100,00 %
26.02.2017 00:32 7,3 C 7,2 C 5,6 C 74 % 0 lf 1013,6 hPa 0,0 l/m 0 min 0 min 5 W/m 20,9 km/h (4 Bft) 97,87 %
26.02.2017 00:34 7,3 C 7,8 C 5,6 C 74 % 0 lf 1013,6 hPa 0,0 l/m 0 min 0 min 5 W/m 23,0 km/h (4 Bft) 93,48 %
26.02.2017 00:36 7,3 C 7,8 C 5,6 C 74 % 0 lf 1013,5 hPa 0,0 l/m 0 min 0 min 5 W/m 20,9 km/h (4 Bft) 97,87 %
26.02.2017 00:38 7,3 C 7,8 C 5,6 C 74 % 0 lf 1013,5 hPa 0,0 l/m 0 min 0 min 5 W/m 16,7 km/h (3 Bft) 97,87 %
26.02.2017 00:40 7,3 C 7,8 C 5,6 C 74 % 0 lf 1013,6 hPa 0,0 l/m 0 min 0 min 5 W/m 23,0 km/h (4 Bft) 95,74 %
26.02.2017 00:42 7,3 C 7,8 C 5,6 C 74 % 0 lf 1013,5 hPa 0,0 l/m 0 min 0 min 5 W/m 12,6 km/h (3 Bft) 95,74 %
26.02.2017 00:44 7,3 C 7,8 C 5,6 C 74 % 0 lf 1013,6 hPa 0,0 l/m 0 min 0 min 5 W/m 16,7 km/h (3 Bft) 93,62 %
26.02.2017 00:46 7,3 C 7,8 C 5,6 C 74 % 0 lf 1013,5 hPa 0,0 l/m 0 min 0 min 5 W/m 16,7 km/h (3 Bft) 93,48 %
26.02.2017 00:48 7,3 C 7,8 C 5,6 C 74 % 0 lf 1013,5 hPa 0,0 l/m 0 min 0 min 5 W/m 12,6 km/h (3 Bft) 95,74 %
26.02.2017 00:50 7,4 C 7,8 C 5,6 C 74 % 0 lf 1013,5 hPa 0,0 l/m 0 min 0 min 5 W/m 20,9 km/h (4 Bft) 93,62 %
26.02.2017 00:52 7,4 C 7,8 C 5,6 C 74 % 0 lf 1013,4 hPa 0,0 l/m 0 min 0 min 5 W/m 20,9 km/h (4 Bft) 91,49 %
26.02.2017 00:54 7,4 C 7,8 C 5,6 C 74 % 0 lf 1013,3 hPa 0,0 l/m 0 min 0 min 5 W/m 16,7 km/h (3 Bft) 95,74 %
26.02.2017 00:56 7,4 C 7,8 C 5,6 C 74 % 0 lf 1013,2 hPa 0,0 l/m 0 min 0 min 5 W/m 16,7 km/h (3 Bft) 95,74 %
26.02.2017 00:58 7,4 C 7,8 C 5,6 C 73 % 0 lf 1013,3 hPa 0,0 l/m 0 min 0 min 5 W/m 20,9 km/h (4 Bft) 95,65 %
26.02.2017 01:00 7,4 C 7,8 C 5,6 C 73 % 0 lf 1013,1 hPa 0,0 l/m 0 min 0 min 5 W/m 14,6 km/h (3 Bft) 93,62 %
26.02.2017 01:02 7,4 C 7,8 C 5,6 C 73 % 0 lf 1013,1 hPa 0,0 l/m 0 min 0 min 5 W/m 14,6 km/h (3 Bft) 93,62 %
26.02.2017 01:04 7,4 C 7,8 C 5,6 C 73 % 0 lf 1013,2 hPa 0,0 l/m 0 min 0 min 5 W/m 12,6 km/h (3 Bft) 95,74 %
26.02.2017 01:06 7,4 C 7,8 C 5,6 C 73 % 0 lf 1013,0 hPa 0,0 l/m 0 min 0 min 5 W/m 16,7 km/h (3 Bft) 93,62 %
26.02.2017 01:08 7,4 C 7,8 C 5,6 C 73 % 0 lf 1013,1 hPa 0,0 l/m 0 min 0 min 5 W/m 20,9 km/h (4 Bft) 93,62 %
26.02.2017 01:10 7,4 C 7,8 C 5,6 C 73 % 0 lf 1013,0 hPa 0,0 l/m 0 min 0 min 5 W/m 14,6 km/h (3 Bft) 93,48 %
26.02.2017 01:12 7,4 C 7,8 C 5,6 C 73 % 0 lf 1013,1 hPa 0,0 l/m 0 min 0 min 5 W/m 31,4 km/h (5 Bft) 91,49 %
26.02.2017 01:14 7,4 C 7,8 C 5,6 C 73 % 0 lf 1013,0 hPa 0,0 l/m 0 min 0 min 5 W/m 16,7 km/h (3 Bft) 93,62 %
26.02.2017 01:16 7,4 C 7,8 C 5,6 C 73 % 0 lf 1012,9 hPa 0,0 l/m 0 min 0 min 5 W/m 12,6 km/h (3 Bft) 93,62 %
26.02.2017 01:18 7,4 C 7,8 C 5,6 C 73 % 0 lf 1013,0 hPa 0,0 l/m 0 min 0 min 5 W/m 20,9 km/h (4 Bft) 97,87 %
26.02.2017 01:20 7,4 C 7,8 C 5,6 C 73 % 0 lf 1013,0 hPa 0,0 l/m 0 min 0 min 5 W/m 23,0 km/h (4 Bft) 95,74 %
26.02.2017 01:22 7,4 C 7,8 C 5,6 C 73 % 0 lf 1013,0 hPa 0,0 l/m 0 min 0 min 5 W/m 20,9 km/h (4 Bft) 95,65 %
26.02.2017 01:24 7,5 C 7,8 C 5,6 C 73 % 0 lf 1013,0 hPa 0,0 l/m 0 min 0 min 5 W/m 25,1 km/h (4 Bft) 95,74 %
26.02.2017 01:26 7,5 C 7,8 C 6,1 C 73 % 0 lf 1013,0 hPa 0,0 l/m 0 min 0 min 5 W/m 16,7 km/h (3 Bft) 97,87 %
26.02.2017 01:28 7,5 C 7,8 C 5,6 C 73 % 0 lf 1013,1 hPa 0,0 l/m 0 min 0 min 5 W/m 16,7 km/h (3 Bft) 93,62 %
26.02.2017 01:30 7,5 C 7,8 C 5,6 C 73 % 0 lf 1013,0 hPa 0,0 l/m 0 min 0 min 5 W/m 20,9 km/h (4 Bft) 93,62 %
26.02.2017 01:32 7,5 C 7,8 C 5,6 C 73 % 0 lf 1013,0 hPa 0,0 l/m 0 min 0 min 5 W/m 18,8 km/h (3 Bft) 95,65 %
26.02.2017 01:34 7,6 C 7,8 C 5,6 C 73 % 0 lf 1013,0 hPa 0,0 l/m 0 min 0 min 5 W/m 27,2 km/h (4 Bft) 93,62 %
26.02.2017 01:36 7,5 C 7,8 C 5,6 C 73 % 0 lf 1012,9 hPa 0,0 l/m 0 min 0 min 5 W/m 18,8 km/h (3 Bft) 95,74 %
26.02.2017 01:38 7,6 C 7,8 C 5,6 C 73 % 0 lf 1013,0 hPa 0,0 l/m 0 min 0 min 5 W/m 20,9 km/h (4 Bft) 95,74 %
26.02.2017 01:40 7,6 C 7,8 C 6,1 C 73 % 0 lf 1012,9 hPa 0,0 l/m 0 min 0 min 5 W/m 18,8 km/h (3 Bft) 95,74 %
26.02.2017 01:42 7,6 C 7,8 C 5,6 C 73 % 0 lf 1012,9 hPa 0,0 l/m 0 min 0 min 5 W/m 20,9 km/h (4 Bft) 91,49 %
26.02.2017 01:44 7,6 C 7,8 C 5,6 C 73 % 0 lf 1012,9 hPa 0,0 l/m 0 min 0 min 5 W/m 31,4 km/h (5 Bft) 93,48 %
26.02.2017 01:46 7,6 C 7,8 C 5,6 C 73 % 0 lf 1012,8 hPa 0,0 l/m 0 min 0 min 5 W/m 25,1 km/h (4 Bft) 95,74 %
26.02.2017 01:48 7,6 C 7,8 C 6,1 C 73 % 0 lf 1012,8 hPa 0,0 l/m 0 min 0 min 5 W/m 25,1 km/h (4 Bft) 97,87 %
26.02.2017 01:50 7,6 C 7,8 C 6,1 C 73 % 0 lf 1012,8 hPa 0,0 l/m 0 min 0 min 5 W/m 27,2 km/h (4 Bft) 95,74 %
26.02.2017 01:52 7,6 C 7,8 C 6,1 C 73 % 0 lf 1012,9 hPa 0,0 l/m 0 min 0 min 5 W/m 29,3 km/h (5 Bft) 94,29 %
26.02.2017 01:54 7,6 C 7,8 C 6,1 C 72 % 0 lf 1012,9 hPa 0,0 l/m 0 min 0 min 5 W/m 23,0 km/h (4 Bft) 97,87 %
26.02.2017 01:56 7,6 C 7,8 C 6,1 C 72 % 0 lf 1012,8 hPa 0,0 l/m 0 min 0 min 5 W/m 20,9 km/h (4 Bft) 97,87 %
26.02.2017 01:58 7,7 C 7,8 C 6,1 C 72 % 0 lf 1012,8 hPa 0,0 l/m 0 min 0 min 5 W/m 23,0 km/h (4 Bft) 97,87 %
26.02.2017 02:00 7,7 C 7,8 C 6,1 C 72 % 0 lf 1012,7 hPa 0,0 l/m 0 min 0 min 5 W/m 23,0 km/h (4 Bft) 93,48 %
26.02.2017 02:02 7,7 C 7,8 C 6,1 C 72 % 0 lf 1012,7 hPa 0,0 l/m 0 min 0 min 5 W/m 31,4 km/h (5 Bft) 95,74 %
26.02.2017 02:04 7,7 C 7,8 C 6,1 C 72 % 0 lf 1012,7 hPa 0,0 l/m 0 min 0 min 5 W/m 27,2 km/h (4 Bft) 97,87 %
26.02.2017 02:06 7,7 C 7,8 C 6,1 C 72 % 0 lf 1012,7 hPa 0,0 l/m 0 min 0 min 5 W/m 23,0 km/h (4 Bft) 97,87 %
26.02.2017 02:08 7,7 C 7,8 C 6,1 C 72 % 0 lf 1012,7 hPa 0,0 l/m 0 min 0 min 5 W/m 18,8 km/h (3 Bft) 97,87 %
26.02.2017 02:10 7,7 C 7,8 C 6,1 C 72 % 0 lf 1012,7 hPa 0,0 l/m 0 min 0 min 5 W/m 18,8 km/h (3 Bft) 95,74 %
26.02.2017 02:12 7,7 C 7,8 C 6,1 C 72 % 0 lf 1012,7 hPa 0,0 l/m 0 min 0 min 5 W/m 27,2 km/h (4 Bft) 97,83 %
26.02.2017 02:14 7,7 C 7,8 C 6,1 C 72 % 0 lf 1012,5 hPa 0,0 l/m 0 min 0 min 5 W/m 14,6 km/h (3 Bft) 100,00 %
26.02.2017 02:16 7,7 C 7,8 C 6,1 C 72 % 0 lf 1012,6 hPa 0,0 l/m 0 min 0 min 5 W/m 20,9 km/h (4 Bft) 100,00 %
26.02.2017 02:18 7,7 C 7,8 C 6,1 C 72 % 0 lf 1012,6 hPa 0,0 l/m 0 min 0 min 5 W/m 20,9 km/h (4 Bft) 100,00 %
26.02.2017 02:20 7,7 C 7,8 C 6,1 C 72 % 0 lf 1012,5 hPa 0,0 l/m 0 min 0 min 5 W/m 27,2 km/h (4 Bft) 96,55 %
26.02.2017 02:22 7,7 C 7,8 C 6,1 C 72 % 0 lf 1012,6 hPa 0,0 l/m 0 min 0 min 5 W/m 16,7 km/h (3 Bft) 100,00 %
26.02.2017 02:24 7,7 C 7,8 C 6,1 C 72 % 0 lf 1012,7 hPa 0,0 l/m 0 min 0 min 5 W/m 23,0 km/h (4 Bft) 100,00 %
26.02.2017 02:26 7,7 C 7,8 C 6,1 C 72 % 0 lf 1012,5 hPa 0,0 l/m 0 min 0 min 5 W/m 23,0 km/h (4 Bft) 97,87 %
26.02.2017 02:28 7,7 C 7,8 C 6,1 C 72 % 0 lf 1012,5 hPa 0,0 l/m 0 min 0 min 5 W/m 20,9 km/h (4 Bft) 97,87 %
26.02.2017 02:30 7,7 C 7,8 C 6,1 C 72 % 0 lf 1012,5 hPa 0,0 l/m 0 min 0 min 5 W/m 20,9 km/h (4 Bft) 97,87 %
26.02.2017 02:32 7,7 C 7,8 C 6,1 C 72 % 0 lf 1012,5 hPa 0,0 l/m 0 min 0 min 5 W/m 18,8 km/h (3 Bft) 95,74 %
26.02.2017 02:34 7,7 C 7,8 C 6,1 C 72 % 0 lf 1012,5 hPa 0,0 l/m 0 min 0 min 5 W/m 23,0 km/h (4 Bft) 97,87 %
26.02.2017 02:36 7,7 C 7,8 C 6,1 C 72 % 0 lf 1012,5 hPa 0,0 l/m 0 min 0 min 5 W/m 14,6 km/h (3 Bft) 97,83 %
26.02.2017 02:38 7,7 C 7,8 C 6,1 C 72 % 0 lf 1012,5 hPa 0,0 l/m 0 min 0 min 5 W/m 18,8 km/h (3 Bft) 100,00 %
26.02.2017 02:40 7,7 C 7,8 C 6,1 C 72 % 0 lf 1012,4 hPa 0,0 l/m 0 min 0 min 5 W/m 18,8 km/h (3 Bft) 97,87 %
26.02.2017 02:42 7,7 C 7,8 C 6,1 C 72 % 0 lf 1012,4 hPa 0,0 l/m 0 min 0 min 5 W/m 23,0 km/h (4 Bft) 97,87 %
26.02.2017 02:44 7,7 C 7,8 C 6,1 C 72 % 0 lf 1012,4 hPa 0,0 l/m 0 min 0 min 5 W/m 23,0 km/h (4 Bft) 95,74 %
26.02.2017 02:46 7,7 C 7,8 C 6,1 C 72 % 0 lf 1012,4 hPa 0,0 l/m 0 min 0 min 5 W/m 14,6 km/h (3 Bft) 97,83 %
26.02.2017 02:48 7,7 C 7,8 C 6,1 C 72 % 0 lf 1012,4 hPa 0,0 l/m 0 min 0 min 5 W/m 27,2 km/h (4 Bft) 97,87 %
26.02.2017 02:50 7,7 C 7,8 C 6,1 C 72 % 0 lf 1012,4 hPa 0,0 l/m 0 min 0 min 5 W/m 25,1 km/h (4 Bft) 97,87 %
26.02.2017 02:52 7,7 C 7,8 C 6,1 C 72 % 0 lf 1012,4 hPa 0,0 l/m 0 min 0 min 5 W/m 25,1 km/h (4 Bft) 97,87 %
26.02.2017 02:54 7,7 C 7,8 C 6,1 C 72 % 0 lf 1012,3 hPa 0,0 l/m 0 min 0 min 5 W/m 20,9 km/h (4 Bft) 97,87 %
26.02.2017 02:56 7,7 C 7,8 C 6,1 C 72 % 0 lf 1012,4 hPa 0,0 l/m 0 min 0 min 5 W/m 20,9 km/h (4 Bft) 95,74 %
26.02.2017 02:58 7,7 C 7,8 C 6,1 C 72 % 0 lf 1012,3 hPa 0,0 l/m 0 min 0 min 5 W/m 20,9 km/h (4 Bft) 97,83 %
26.02.2017 03:00 7,7 C 7,8 C 6,1 C 72 % 0 lf 1012,4 hPa 0,0 l/m 0 min 0 min 5 W/m 23,0 km/h (4 Bft) 93,62 %
26.02.2017 03:02 7,7 C 7,8 C 6,1 C 72 % 0 lf 1012,3 hPa 0,0 l/m 0 min 0 min 5 W/m 16,7 km/h (3 Bft) 97,87 %
26.02.2017 03:04 7,8 C 7,8 C 6,1 C 72 % 0 lf 1012,3 hPa 0,0 l/m 0 min 0 min 5 W/m 20,9 km/h (4 Bft) 97,87 %
26.02.2017 03:06 7,7 C 7,8 C 6,1 C 72 % 0 lf 1012,3 hPa 0,0 l/m 0 min 0 min 5 W/m 29,3 km/h (5 Bft) 95,74 %
26.02.2017 03:08 7,7 C 7,8 C 6,1 C 72 % 0 lf 1012,3 hPa 0,0 l/m 0 min 0 min 5 W/m 16,7 km/h (3 Bft) 95,74 %
26.02.2017 03:10 7,7 C 7,8 C 6,1 C 72 % 0 lf 1012,4 hPa 0,0 l/m 0 min 0 min 5 W/m 20,9 km/h (4 Bft) 95,65 %
26.02.2017 03:12 7,7 C 7,8 C 6,1 C 73 % 0 lf 1012,3 hPa 0,0 l/m 0 min 0 min 5 W/m 16,7 km/h (3 Bft) 100,00 %
26.02.2017 03:14 7,7 C 7,8 C 6,1 C 72 % 0 lf 1012,2 hPa 0,0 l/m 0 min 0 min 5 W/m 16,7 km/h (3 Bft) 100,00 %
26.02.2017 03:16 7,7 C 7,8 C 6,1 C 72 % 0 lf 1012,2 hPa 0,0 l/m 0 min 0 min 5 W/m 16,7 km/h (3 Bft) 95,74 %
26.02.2017 03:18 7,7 C 7,8 C 6,1 C 72 % 0 lf 1012,2 hPa 0,0 l/m 0 min 0 min 5 W/m 14,6 km/h (3 Bft) 95,74 %
26.02.2017 03:20 7,7 C 7,8 C 6,1 C 72 % 0 lf 1012,2 hPa 0,0 l/m 0 min 0 min 5 W/m 14,6 km/h (3 Bft) 95,74 %
26.02.2017 03:22 7,7 C 7,8 C 6,1 C 73 % 0 lf 1012,3 hPa 0,0 l/m 0 min 0 min 5 W/m 16,7 km/h (3 Bft) 97,83 %
26.02.2017 03:24 7,7 C 7,8 C 6,1 C 73 % 0 lf 1012,1 hPa 0,0 l/m 0 min 0 min 5 W/m 14,6 km/h (3 Bft) 97,87 %
26.02.2017 03:26 7,7 C 7,8 C 6,1 C 73 % 0 lf 1012,1 hPa 0,0 l/m 0 min 0 min 5 W/m 12,6 km/h (3 Bft) 93,62 %
26.02.2017 03:28 7,7 C 7,8 C 6,1 C 73 % 0 lf 1012,0 hPa 0,0 l/m 0 min 0 min 5 W/m 12,6 km/h (3 Bft) 95,74 %
26.02.2017 03:30 7,7 C 7,8 C 5,6 C 73 % 0 lf 1012,0 hPa 0,0 l/m 0 min 0 min 5 W/m 20,9 km/h (4 Bft) 97,87 %
26.02.2017 03:32 7,7 C 7,8 C 6,1 C 73 % 0 lf 1012,0 hPa 0,0 l/m 0 min 0 min 5 W/m 16,7 km/h (3 Bft) 95,74 %
26.02.2017 03:34 7,7 C 7,8 C 6,1 C 73 % 0 lf 1012,0 hPa 0,0 l/m 0 min 0 min 5 W/m 18,8 km/h (3 Bft) 100,00 %
26.02.2017 03:36 7,7 C 7,8 C 6,1 C 73 % 0 lf 1012,1 hPa 0,0 l/m 0 min 0 min 5 W/m 14,6 km/h (3 Bft) 95,74 %
26.02.2017 03:38 7,7 C 7,8 C 6,1 C 73 % 0 lf 1012,1 hPa 0,0 l/m 0 min 0 min 5 W/m 20,9 km/h (4 Bft) 93,62 %
26.02.2017 03:40 7,7 C 7,8 C 6,1 C 73 % 0 lf 1012,1 hPa 0,0 l/m 0 min 0 min 5 W/m 14,6 km/h (3 Bft) 93,62 %
26.02.2017 03:42 7,7 C 7,8 C 6,1 C 73 % 0 lf 1012,0 hPa 0,0 l/m 0 min 0 min 5 W/m 18,8 km/h (3 Bft) 95,74 %
26.02.2017 03:44 7,6 C 7,8 C 6,1 C 73 % 0 lf 1012,0 hPa 0,0 l/m 0 min 0 min 5 W/m 18,8 km/h (3 Bft) 95,65 %
26.02.2017 03:46 7,7 C 7,8 C 6,1 C 73 % 0 lf 1011,9 hPa 0,0 l/m 0 min 2 min 5 W/m 14,6 km/h (3 Bft) 95,74 %
26.02.2017 03:48 7,6 C 7,8 C 6,1 C 73 % 0 lf 1011,9 hPa 0,0 l/m 0 min 2 min 5 W/m 12,6 km/h (3 Bft) 95,74 %
26.02.2017 03:50 7,7 C 7,8 C 6,1 C 73 % 0 lf 1011,8 hPa 0,0 l/m 0 min 0 min 5 W/m 16,7 km/h (3 Bft) 93,62 %
26.02.2017 03:52 7,6 C 7,8 C 6,1 C 73 % 0 lf 1011,8 hPa 0,0 l/m 0 min 0 min 5 W/m 16,7 km/h (3 Bft) 87,23 %
26.02.2017 03:54 7,6 C 7,8 C 6,1 C 73 % 0 lf 1011,8 hPa 0,0 l/m 0 min 0 min 5 W/m 27,2 km/h (4 Bft) 95,74 %
26.02.2017 03:56 7,6 C 7,8 C 6,1 C 73 % 0 lf 1011,6 hPa 0,0 l/m 0 min 0 min 5 W/m 23,0 km/h (4 Bft) 95,65 %
26.02.2017 03:58 7,6 C 7,8 C 6,1 C 73 % 0 lf 1011,6 hPa 0,0 l/m 0 min 0 min 5 W/m 18,8 km/h (3 Bft) 93,62 %
26.02.2017 04:00 7,6 C 7,8 C 6,1 C 73 % 0 lf 1011,6 hPa 0,0 l/m 0 min 0 min 5 W/m 20,9 km/h (4 Bft) 89,36 %
26.02.2017 04:05 7,6 C 7,8 C 6,1 C 73 % 0 lf 1011,5 hPa 0,0 l/m 0 min 0 min 5 W/m 16,7 km/h (3 Bft) 98,36 %
26.02.2017 04:06 7,6 C 7,8 C 6,1 C 73 % 0 lf 1011,5 hPa 0,0 l/m 0 min 0 min 5 W/m 16,7 km/h (3 Bft) 100,00 %
26.02.2017 04:08 7,6 C 7,8 C 6,1 C 74 % 0 lf 1011,5 hPa 0,0 l/m 0 min 0 min 5 W/m 20,9 km/h (4 Bft) 93,48 %
26.02.2017 04:10 7,6 C 7,8 C 6,1 C 73 % 0 lf 1011,4 hPa 0,0 l/m 0 min 0 min 5 W/m 14,6 km/h (3 Bft) 93,62 %
26.02.2017 04:12 7,6 C 7,8 C 5,6 C 74 % 0 lf 1011,4 hPa 0,0 l/m 0 min 0 min 5 W/m 18,8 km/h (3 Bft) 91,49 %
26.02.2017 04:14 7,6 C 7,8 C 5,6 C 74 % 0 lf 1011,4 hPa 0,0 l/m 0 min 0 min 5 W/m 16,7 km/h (3 Bft) 93,62 %
26.02.2017 04:16 7,6 C 7,8 C 6,1 C 74 % 0 lf 1011,4 hPa 0,0 l/m 0 min 0 min 5 W/m 16,7 km/h (3 Bft) 89,36 %
26.02.2017 04:18 7,6 C 7,8 C 6,1 C 74 % 0 lf 1011,5 hPa 0,0 l/m 0 min 0 min 5 W/m 18,8 km/h (3 Bft) 93,62 %
26.02.2017 04:20 7,6 C 7,8 C 6,1 C 74 % 0 lf 1011,6 hPa 0,0 l/m 0 min 0 min 5 W/m 16,7 km/h (3 Bft) 93,10 %
26.02.2017 04:22 7,6 C 7,8 C 5,6 C 74 % 0 lf 1011,5 hPa 0,0 l/m 0 min 0 min 5 W/m 20,9 km/h (4 Bft) 91,43 %
26.02.2017 04:24 7,6 C 7,8 C 5,6 C 74 % 0 lf 1011,6 hPa 0,0 l/m 0 min 0 min 5 W/m 16,7 km/h (3 Bft) 93,62 %
26.02.2017 04:26 7,6 C 7,8 C 5,6 C 74 % 0 lf 1011,5 hPa 0,0 l/m 0 min 0 min 5 W/m 14,6 km/h (3 Bft) 93,62 %
26.02.2017 04:28 7,6 C 7,8 C 5,6 C 74 % 0 lf 1011,4 hPa 0,0 l/m 0 min 0 min 5 W/m 29,3 km/h (5 Bft) 93,62 %
26.02.2017 04:30 7,5 C 7,8 C 5,6 C 74 % 0 lf 1011,4 hPa 0,0 l/m 0 min 0 min 5 W/m 18,8 km/h (3 Bft) 95,74 %
26.02.2017 04:32 7,6 C 7,8 C 5,6 C 74 % 0 lf 1011,5 hPa 0,0 l/m 0 min 0 min 5 W/m 14,6 km/h (3 Bft) 95,65 %
26.02.2017 04:34 7,6 C 7,8 C 5,6 C 74 % 0 lf 1011,5 hPa 0,0 l/m 0 min 0 min 5 W/m 25,1 km/h (4 Bft) 95,74 %
26.02.2017 04:36 7,5 C 7,8 C 5,6 C 74 % 0 lf 1011,4 hPa 0,0 l/m 0 min 0 min 5 W/m 25,1 km/h (4 Bft) 95,74 %
26.02.2017 04:38 7,5 C 7,8 C 5,6 C 74 % 0 lf 1011,3 hPa 0,0 l/m 0 min 0 min 5 W/m 23,0 km/h (4 Bft) 89,36 %
26.02.2017 04:40 7,5 C 7,8 C 5,6 C 74 % 0 lf 1011,3 hPa 0,0 l/m 0 min 0 min 5 W/m 27,2 km/h (4 Bft) 91,49 %
26.02.2017 04:42 7,5 C 7,8 C 5,6 C 74 % 0 lf 1011,3 hPa 0,0 l/m 0 min 0 min 5 W/m 23,0 km/h (4 Bft) 93,62 %
26.02.2017 04:44 7,5 C 7,8 C 5,6 C 74 % 0 lf 1011,3 hPa 0,0 l/m 0 min 0 min 5 W/m 23,0 km/h (4 Bft) 93,48 %
26.02.2017 04:46 7,5 C 7,8 C 5,6 C 74 % 0 lf 1011,3 hPa 0,0 l/m 0 min 0 min 5 W/m 27,2 km/h (4 Bft) 93,62 %
26.02.2017 04:48 7,5 C 7,8 C 5,6 C 74 % 0 lf 1011,3 hPa 0,0 l/m 0 min 0 min 5 W/m 23,0 km/h (4 Bft) 95,74 %
26.02.2017 04:50 7,5 C 7,8 C 5,6 C 74 % 0 lf 1011,3 hPa 0,0 l/m 0 min 0 min 5 W/m 27,2 km/h (4 Bft) 91,49 %
26.02.2017 04:52 7,5 C 7,8 C 5,6 C 74 % 0 lf 1011,3 hPa 0,0 l/m 0 min 0 min 5 W/m 20,9 km/h (4 Bft) 95,74 %
26.02.2017 04:54 7,5 C 7,8 C 5,6 C 74 % 0 lf 1011,3 hPa 0,0 l/m 0 min 0 min 5 W/m 20,9 km/h (4 Bft) 93,62 %
26.02.2017 04:56 7,5 C 7,8 C 5,6 C 74 % 0 lf 1011,2 hPa 0,0 l/m 0 min 0 min 5 W/m 18,8 km/h (3 Bft) 95,65 %
26.02.2017 04:58 7,5 C 7,8 C 5,6 C 74 % 0 lf 1011,2 hPa 0,0 l/m 0 min 0 min 5 W/m 20,9 km/h (4 Bft) 97,87 %
26.02.2017 05:00 7,5 C 7,8 C 5,6 C 74 % 0 lf 1011,2 hPa 0,0 l/m 0 min 0 min 5 W/m 18,8 km/h (3 Bft) 95,74 %
26.02.2017 05:02 7,5 C 7,8 C 5,6 C 74 % 0 lf 1011,2 hPa 0,0 l/m 0 min 0 min 5 W/m 16,7 km/h (3 Bft) 97,87 %
26.02.2017 05:04 7,5 C 7,8 C 5,6 C 74 % 0 lf 1011,1 hPa 0,0 l/m 0 min 0 min 5 W/m 27,2 km/h (4 Bft) 100,00 %
26.02.2017 05:06 7,5 C 7,8 C 5,6 C 74 % 0 lf 1011,1 hPa 0,0 l/m 0 min 0 min 5 W/m 16,7 km/h (3 Bft) 93,48 %
26.02.2017 05:08 7,5 C 7,8 C 5,6 C 74 % 0 lf 1011,2 hPa 0,0 l/m 0 min 0 min 5 W/m 20,9 km/h (4 Bft) 100,00 %
26.02.2017 05:10 7,5 C 7,8 C 5,6 C 74 % 0 lf 1011,2 hPa 0,0 l/m 0 min 0 min 5 W/m 18,8 km/h (3 Bft) 100,00 %
26.02.2017 05:12 7,5 C 7,8 C 5,6 C 74 % 0 lf 1011,2 hPa 0,0 l/m 0 min 0 min 5 W/m 16,7 km/h (3 Bft) 100,00 %
26.02.2017 05:14 7,5 C 7,8 C 6,1 C 74 % 0 lf 1011,2 hPa 0,0 l/m 0 min 0 min 5 W/m 29,3 km/h (5 Bft) 97,87 %
26.02.2017 05:16 7,5 C 7,8 C 5,6 C 74 % 0 lf 1011,3 hPa 0,0 l/m 0 min 0 min 5 W/m 14,6 km/h (3 Bft) 100,00 %
26.02.2017 05:18 7,5 C 7,8 C 5,6 C 74 % 0 lf 1011,3 hPa 0,0 l/m 0 min 0 min 5 W/m 16,7 km/h (3 Bft) 97,83 %
26.02.2017 05:20 7,5 C 7,8 C 5,6 C 74 % 0 lf 1011,2 hPa 0,0 l/m 0 min 0 min 5 W/m 18,8 km/h (3 Bft) 97,87 %
26.02.2017 05:22 7,5 C 7,8 C 5,6 C 74 % 0 lf 1011,2 hPa 0,0 l/m 0 min 0 min 5 W/m 16,7 km/h (3 Bft) 97,87 %
26.02.2017 05:24 7,5 C 7,8 C 5,6 C 74 % 0 lf 1011,1 hPa 0,0 l/m 0 min 0 min 5 W/m 12,6 km/h (3 Bft) 100,00 %
26.02.2017 05:26 7,5 C 7,8 C 5,6 C 74 % 0 lf 1011,2 hPa 0,0 l/m 0 min 0 min 5 W/m 27,2 km/h (4 Bft) 100,00 %
26.02.2017 05:28 7,5 C 7,8 C 5,6 C 74 % 0 lf 1011,2 hPa 0,0 l/m 0 min 0 min 5 W/m 20,9 km/h (4 Bft) 100,00 %
26.02.2017 05:30 7,5 C 7,8 C 5,6 C 74 % 0 lf 1011,2 hPa 0,0 l/m 0 min 0 min 5 W/m 23,0 km/h (4 Bft) 100,00 %
26.02.2017 05:32 7,5 C 7,8 C 5,6 C 74 % 0 lf 1011,2 hPa 0,0 l/m 0 min 0 min 5 W/m 20,9 km/h (4 Bft) 97,87 %
26.02.2017 05:34 7,5 C 7,8 C 5,6 C 74 % 0 lf 1011,2 hPa 0,0 l/m 0 min 0 min 5 W/m 20,9 km/h (4 Bft) 97,87 %
26.02.2017 05:36 7,6 C 7,8 C 5,6 C 74 % 0 lf 1011,1 hPa 0,0 l/m 0 min 0 min 5 W/m 25,1 km/h (4 Bft) 97,87 %
26.02.2017 05:38 7,6 C 7,8 C 6,1 C 74 % 0 lf 1011,1 hPa 0,0 l/m 0 min 0 min 5 W/m 16,7 km/h (3 Bft) 100,00 %
26.02.2017 05:40 7,5 C 7,8 C 5,6 C 74 % 0 lf 1011,1 hPa 0,0 l/m 0 min 0 min 5 W/m 16,7 km/h (3 Bft) 97,87 %
26.02.2017 05:42 7,6 C 7,8 C 5,6 C 74 % 0 lf 1011,2 hPa 0,0 l/m 0 min 0 min 5 W/m 23,0 km/h (4 Bft) 100,00 %
26.02.2017 05:44 7,6 C 7,8 C 6,1 C 74 % 0 lf 1011,1 hPa 0,0 l/m 0 min 0 min 5 W/m 18,8 km/h (3 Bft) 100,00 %
26.02.2017 05:46 7,6 C 7,8 C 6,1 C 74 % 0 lf 1011,1 hPa 0,0 l/m 0 min 0 min 5 W/m 18,8 km/h (3 Bft) 97,87 %
26.02.2017 05:48 7,6 C 7,8 C 5,6 C 74 % 0 lf 1011,1 hPa 0,0 l/m 0 min 0 min 5 W/m 29,3 km/h (5 Bft) 95,74 %
26.02.2017 05:50 7,6 C 7,8 C 5,6 C 74 % 0 lf 1011,1 hPa 0,0 l/m 0 min 0 min 5 W/m 27,2 km/h (4 Bft) 100,00 %
26.02.2017 05:52 7,6 C 7,8 C 5,6 C 74 % 0 lf 1011,0 hPa 0,0 l/m 0 min 0 min 5 W/m 18,8 km/h (3 Bft) 95,74 %
26.02.2017 05:54 7,6 C 7,8 C 5,6 C 74 % 0 lf 1010,9 hPa 0,0 l/m 0 min 0 min 5 W/m 16,7 km/h (3 Bft) 97,83 %
26.02.2017 05:56 7,6 C 7,8 C 5,6 C 74 % 0 lf 1010,9 hPa 0,0 l/m 0 min 0 min 5 W/m 14,6 km/h (3 Bft) 100,00 %
26.02.2017 05:58 7,6 C 7,8 C 5,6 C 74 % 0 lf 1010,9 hPa 0,0 l/m 0 min 0 min 5 W/m 16,7 km/h (3 Bft) 100,00 %
26.02.2017 06:00 7,6 C 7,8 C 5,6 C 74 % 0 lf 1010,9 hPa 0,0 l/m 0 min 0 min 2 W/m 16,7 km/h (3 Bft) 95,74 %
26.02.2017 06:02 7,5 C 7,8 C 5,6 C 74 % 0 lf 1010,8 hPa 0,0 l/m 0 min 0 min 0 W/m 25,1 km/h (4 Bft) 100,00 %
26.02.2017 06:05 7,5 C 7,8 C 5,6 C 74 % 0 lf 1010,9 hPa 0,0 l/m 0 min 0 min 0 W/m 23,0 km/h (4 Bft) 100,00 %
26.02.2017 06:06 7,5 C 7,8 C 5,6 C 74 % 0 lf 1010,9 hPa 0,0 l/m 0 min 0 min 0 W/m 12,6 km/h (3 Bft) 91,67 %
26.02.2017 06:08 7,5 C 7,8 C 5,6 C 74 % 0 lf 1010,9 hPa 0,0 l/m 0 min 0 min 0 W/m 16,7 km/h (3 Bft) 97,87 %
26.02.2017 06:10 7,5 C 7,8 C 5,6 C 74 % 0 lf 1010,9 hPa 0,0 l/m 0 min 0 min 0 W/m 20,9 km/h (4 Bft) 97,87 %
26.02.2017 06:12 7,5 C 7,8 C 5,6 C 74 % 0 lf 1010,8 hPa 0,0 l/m 0 min 0 min 0 W/m 20,9 km/h (4 Bft) 100,00 %
26.02.2017 06:14 7,5 C 7,8 C 5,6 C 74 % 0 lf 1010,8 hPa 0,0 l/m 0 min 0 min 0 W/m 14,6 km/h (3 Bft) 100,00 %
26.02.2017 06:16 7,5 C 7,8 C 5,6 C 74 % 0 lf 1010,6 hPa 0,0 l/m 0 min 0 min 0 W/m 20,9 km/h (4 Bft) 97,87 %
26.02.2017 06:18 7,5 C 7,8 C 5,6 C 74 % 0 lf 1010,6 hPa 0,0 l/m 0 min 0 min 0 W/m 16,7 km/h (3 Bft) 100,00 %
26.02.2017 06:20 7,5 C 7,8 C 5,6 C 75 % 0 lf 1010,6 hPa 0,0 l/m 0 min 0 min 0 W/m 18,8 km/h (3 Bft) 97,87 %
26.02.2017 06:22 7,5 C 7,8 C 5,6 C 74 % 0 lf 1010,6 hPa 0,0 l/m 0 min 0 min 0 W/m 16,7 km/h (3 Bft) 100,00 %
26.02.2017 06:24 7,5 C 7,8 C 5,6 C 75 % 0 lf 1010,7 hPa 0,0 l/m 0 min 0 min 0 W/m 14,6 km/h (3 Bft) 95,65 %
26.02.2017 06:26 7,5 C 7,8 C 5,6 C 75 % 0 lf 1010,6 hPa 0,0 l/m 0 min 0 min 0 W/m 25,1 km/h (4 Bft) 89,36 %
26.02.2017 06:28 7,5 C 7,8 C 5,6 C 75 % 0 lf 1010,6 hPa 0,0 l/m 0 min 0 min 0 W/m 16,7 km/h (3 Bft) 95,74 %
26.02.2017 06:30 7,5 C 7,8 C 5,6 C 75 % 0 lf 1010,6 hPa 0,0 l/m 0 min 0 min 0 W/m 16,7 km/h (3 Bft) 95,74 %
26.02.2017 06:32 7,5 C 7,8 C 5,6 C 75 % 0 lf 1010,6 hPa 0,0 l/m 0 min 0 min 0 W/m 14,6 km/h (3 Bft) 95,74 %
26.02.2017 06:34 7,5 C 7,8 C 5,6 C 75 % 0 lf 1010,6 hPa 0,0 l/m 0 min 0 min 0 W/m 20,9 km/h (4 Bft) 95,74 %
26.02.2017 06:36 7,4 C 7,8 C 5,6 C 75 % 0 lf 1010,6 hPa 0,0 l/m 0 min 0 min 0 W/m 20,9 km/h (4 Bft) 97,83 %
26.02.2017 06:38 7,4 C 7,8 C 5,6 C 75 % 0 lf 1010,6 hPa 0,0 l/m 0 min 0 min 0 W/m 18,8 km/h (3 Bft) 91,49 %
26.02.2017 06:40 7,4 C 7,8 C 5,6 C 75 % 0 lf 1010,6 hPa 0,0 l/m 0 min 0 min 0 W/m 16,7 km/h (3 Bft) 93,62 %
26.02.2017 06:42 7,4 C 7,8 C 5,6 C 75 % 0 lf 1010,6 hPa 0,0 l/m 0 min 0 min 0 W/m 23,0 km/h (4 Bft) 97,87 %
26.02.2017 06:44 7,4 C 7,8 C 5,6 C 75 % 0 lf 1010,5 hPa 0,0 l/m 0 min 0 min 0 W/m 25,1 km/h (4 Bft) 95,74 %
26.02.2017 06:46 7,4 C 7,8 C 5,6 C 75 % 0 lf 1010,5 hPa 0,0 l/m 0 min 0 min 0 W/m 16,7 km/h (3 Bft) 93,48 %
26.02.2017 06:48 7,4 C 7,8 C 5,6 C 75 % 0 lf 1010,5 hPa 0,0 l/m 0 min 0 min 0 W/m 20,9 km/h (4 Bft) 89,36 %
26.02.2017 06:50 7,4 C 7,8 C 5,6 C 75 % 0 lf 1010,5 hPa 0,0 l/m 0 min 0 min 0 W/m 16,7 km/h (3 Bft) 91,49 %
26.02.2017 06:52 7,4 C 7,8 C 5,6 C 75 % 0 lf 1010,5 hPa 0,0 l/m 0 min 0 min 0 W/m 25,1 km/h (4 Bft) 91,49 %
26.02.2017 06:54 7,4 C 7,8 C 5,6 C 75 % 0 lf 1010,5 hPa 0,0 l/m 0 min 0 min 0 W/m 18,8 km/h (3 Bft) 93,62 %
26.02.2017 06:56 7,4 C 7,8 C 5,6 C 75 % 0 lf 1010,4 hPa 0,0 l/m 0 min 0 min 0 W/m 20,9 km/h (4 Bft) 89,36 %
26.02.2017 06:58 7,5 C 7,8 C 5,6 C 75 % 0 lf 1010,5 hPa 0,0 l/m 0 min 0 min 0 W/m 35,6 km/h (5 Bft) 89,13 %
26.02.2017 07:00 7,5 C 7,8 C 6,1 C 75 % 0 lf 1010,4 hPa 0,0 l/m 0 min 0 min 0 W/m 20,9 km/h (4 Bft) 95,74 %
26.02.2017 07:02 7,4 C 7,8 C 6,1 C 75 % 0 lf 1010,4 hPa 0,0 l/m 0 min 0 min 0 W/m 23,0 km/h (4 Bft) 95,74 %
26.02.2017 07:04 7,5 C 7,8 C 6,1 C 75 % 0 lf 1010,4 hPa 0,0 l/m 0 min 0 min 0 W/m 12,6 km/h (3 Bft) 95,74 %
26.02.2017 07:06 7,5 C 7,8 C 5,6 C 75 % 3 lf 1010,4 hPa 0,0 l/m 0 min 2 min 0 W/m 16,7 km/h (3 Bft) 95,74 %
26.02.2017 07:08 7,5 C 7,8 C 5,6 C 75 % 0 lf 1010,4 hPa 0,0 l/m 0 min 2 min 0 W/m 23,0 km/h (4 Bft) 93,62 %
26.02.2017 07:10 7,5 C 7,8 C 5,6 C 75 % 0 lf 1010,4 hPa 0,0 l/m 0 min 2 min 0 W/m 23,0 km/h (4 Bft) 95,65 %
26.02.2017 07:12 7,5 C 7,8 C 5,6 C 76 % 0 lf 1010,3 hPa 0,0 l/m 0 min 0 min 0 W/m 12,6 km/h (3 Bft) 91,49 %
26.02.2017 07:14 7,5 C 7,8 C 5,6 C 76 % 0 lf 1010,3 hPa 0,0 l/m 0 min 0 min 0 W/m 16,7 km/h (3 Bft) 93,62 %
26.02.2017 07:16 7,5 C 7,8 C 5,6 C 76 % 0 lf 1010,3 hPa 0,0 l/m 0 min 0 min 0 W/m 27,2 km/h (4 Bft) 91,49 %
26.02.2017 07:18 7,5 C 7,8 C 5,6 C 76 % 0 lf 1010,4 hPa 0,0 l/m 0 min 0 min 2 W/m 12,6 km/h (3 Bft) 93,62 %
26.02.2017 07:20 7,5 C 7,8 C 5,6 C 76 % 0 lf 1010,4 hPa 0,0 l/m 0 min 0 min 2 W/m 14,6 km/h (3 Bft) 93,62 %
26.02.2017 07:22 7,4 C 7,8 C 5,6 C 76 % 0 lf 1010,4 hPa 0,0 l/m 0 min 0 min 2 W/m 20,9 km/h (4 Bft) 93,48 %
26.02.2017 07:24 7,5 C 7,8 C 5,6 C 76 % 0 lf 1010,5 hPa 0,0 l/m 0 min 0 min 2 W/m 23,0 km/h (4 Bft) 95,74 %
26.02.2017 07:26 7,5 C 7,8 C 6,1 C 76 % 0 lf 1010,5 hPa 0,0 l/m 0 min 0 min 2 W/m 25,1 km/h (4 Bft) 93,62 %
26.02.2017 07:28 7,5 C 7,8 C 5,6 C 76 % 0 lf 1010,5 hPa 0,0 l/m 0 min 0 min 2 W/m 18,8 km/h (3 Bft) 93,62 %
26.02.2017 07:30 7,5 C 7,8 C 6,1 C 76 % 3 lf 1010,6 hPa 0,0 l/m 0 min 0 min 2 W/m 23,0 km/h (4 Bft) 93,62 %
26.02.2017 07:32 7,5 C 7,8 C 6,1 C 76 % 0 lf 1010,6 hPa 0,0 l/m 0 min 2 min 4 W/m 23,0 km/h (4 Bft) 95,65 %
26.02.2017 07:34 7,5 C 7,8 C 5,6 C 76 % 0 lf 1010,6 hPa 0,0 l/m 0 min 2 min 4 W/m 23,0 km/h (4 Bft) 97,87 %
26.02.2017 07:36 7,5 C 7,8 C 5,6 C 76 % 0 lf 1010,6 hPa 0,0 l/m 0 min 0 min 6 W/m 16,7 km/h (3 Bft) 95,74 %
26.02.2017 07:38 7,5 C 7,8 C 5,6 C 76 % 0 lf 1010,6 hPa 0,0 l/m 0 min 0 min 6 W/m 18,8 km/h (3 Bft) 95,74 %
26.02.2017 07:40 7,4 C 7,8 C 5,6 C 76 % 0 lf 1010,7 hPa 0,0 l/m 0 min 0 min 6 W/m 23,0 km/h (4 Bft) 95,74 %
26.02.2017 07:42 7,5 C 7,8 C 5,6 C 76 % 0 lf 1010,7 hPa 0,0 l/m 0 min 0 min 6 W/m 16,7 km/h (3 Bft) 95,74 %
26.02.2017 07:44 7,5 C 7,8 C 5,6 C 76 % 0 lf 1010,6 hPa 0,0 l/m 0 min 0 min 7 W/m 23,0 km/h (4 Bft) 97,83 %
26.02.2017 07:46 7,4 C 7,8 C 5,6 C 76 % 2 lf 1010,6 hPa 0,0 l/m 0 min 2 min 7 W/m 18,8 km/h (3 Bft) 97,87 %
26.02.2017 07:48 7,4 C 7,8 C 5,6 C 76 % 1 lf 1010,6 hPa 0,0 l/m 0 min 2 min 7 W/m 20,9 km/h (4 Bft) 97,87 %
26.02.2017 07:50 7,4 C 7,8 C 5,6 C 76 % 1 lf 1010,6 hPa 0,0 l/m 0 min 0 min 9 W/m 23,0 km/h (4 Bft) 97,87 %
26.02.2017 07:52 7,4 C 7,8 C 5,6 C 76 % 0 lf 1010,7 hPa 0,0 l/m 0 min 0 min 12 W/m 20,9 km/h (4 Bft) 95,74 %
26.02.2017 07:54 7,4 C 7,8 C 5,6 C 76 % 0 lf 1010,6 hPa 0,0 l/m 0 min 0 min 16 W/m 20,9 km/h (4 Bft) 93,62 %
26.02.2017 07:56 7,4 C 7,8 C 5,6 C 76 % 0 lf 1010,7 hPa 0,0 l/m 0 min 0 min 23 W/m 12,6 km/h (3 Bft) 95,65 %
26.02.2017 07:58 7,4 C 7,8 C 5,6 C 76 % 0 lf 1010,7 hPa 0,0 l/m 0 min 0 min 31 W/m 25,1 km/h (4 Bft) 97,87 %
26.02.2017 08:00 7,4 C 7,8 C 5,6 C 76 % 0 lf 1010,7 hPa 0,0 l/m 0 min 0 min 33 W/m 29,3 km/h (5 Bft) 95,74 %
26.02.2017 08:02 7,4 C 7,8 C 5,6 C 76 % 0 lf 1010,8 hPa 0,0 l/m 0 min 0 min 27 W/m 18,8 km/h (3 Bft) 95,74 %
26.02.2017 08:04 7,4 C 7,8 C 6,1 C 76 % 0 lf 1011,0 hPa 0,0 l/m 0 min 0 min 20 W/m 10,5 km/h (2 Bft) 97,87 %
26.02.2017 08:06 7,4 C 7,8 C 6,1 C 76 % 0 lf 1010,9 hPa 0,0 l/m 0 min 0 min 18 W/m 16,7 km/h (3 Bft) 95,74 %
26.02.2017 08:08 7,4 C 7,8 C 6,1 C 76 % 0 lf 1010,9 hPa 0,0 l/m 0 min 0 min 17 W/m 23,0 km/h (4 Bft) 89,13 %
26.02.2017 08:10 7,4 C 7,8 C 6,1 C 76 % 0 lf 1010,8 hPa 0,0 l/m 0 min 0 min 13 W/m 27,2 km/h (4 Bft) 93,62 %
26.02.2017 08:12 7,4 C 7,8 C 6,1 C 76 % 0 lf 1011,0 hPa 0,0 l/m 0 min 0 min 9 W/m 20,9 km/h (4 Bft) 97,87 %
26.02.2017 08:14 7,4 C 7,8 C 6,1 C 76 % 0 lf 1011,0 hPa 0,0 l/m 0 min 0 min 9 W/m 25,1 km/h (4 Bft) 95,74 %
26.02.2017 08:16 7,4 C 7,8 C 6,1 C 76 % 0 lf 1011,1 hPa 0,0 l/m 0 min 0 min 12 W/m 23,0 km/h (4 Bft) 97,87 %
26.02.2017 08:18 7,4 C 7,8 C 6,1 C 76 % 0 lf 1011,1 hPa 0,0 l/m 0 min 0 min 17 W/m 23,0 km/h (4 Bft) 95,74 %
26.02.2017 08:20 7,4 C 7,8 C 6,1 C 76 % 0 lf 1011,2 hPa 0,0 l/m 0 min 0 min 20 W/m 20,9 km/h (4 Bft) 95,65 %
26.02.2017 08:22 7,4 C 7,8 C 6,1 C 76 % 0 lf 1011,2 hPa 0,0 l/m 0 min 0 min 21 W/m 16,7 km/h (3 Bft) 93,75 %
26.02.2017 08:24 7,4 C 7,8 C 6,1 C 76 % 0 lf 1011,2 hPa 0,0 l/m 0 min 0 min 21 W/m 14,6 km/h (3 Bft) 95,74 %
26.02.2017 08:26 7,4 C 7,8 C 6,1 C 76 % 0 lf 1011,3 hPa 0,0 l/m 0 min 0 min 22 W/m 20,9 km/h (4 Bft) 91,49 %
26.02.2017 08:28 7,5 C 7,8 C 6,1 C 76 % 0 lf 1011,2 hPa 0,0 l/m 0 min 0 min 23 W/m 20,9 km/h (4 Bft) 95,74 %
26.02.2017 08:30 7,5 C 7,8 C 6,1 C 76 % 0 lf 1011,3 hPa 0,0 l/m 0 min 0 min 26 W/m 25,1 km/h (4 Bft) 97,87 %
26.02.2017 08:32 7,5 C 7,8 C 6,1 C 76 % 0 lf 1011,2 hPa 0,0 l/m 0 min 0 min 28 W/m 23,0 km/h (4 Bft) 93,62 %
26.02.2017 08:34 7,5 C 7,8 C 6,1 C 76 % 0 lf 1011,0 hPa 0,0 l/m 0 min 0 min 28 W/m 33,5 km/h (5 Bft) 93,48 %
26.02.2017 08:36 7,6 C 7,8 C 6,7 C 76 % 0 lf 1011,1 hPa 0,0 l/m 0 min 0 min 33 W/m 27,2 km/h (4 Bft) 89,36 %
26.02.2017 08:38 7,6 C 8,3 C 6,7 C 76 % 0 lf 1011,1 hPa 0,0 l/m 0 min 0 min 37 W/m 23,0 km/h (4 Bft) 97,87 %
26.02.2017 08:40 7,6 C 8,3 C 6,7 C 76 % 0 lf 1011,1 hPa 0,0 l/m 0 min 0 min 37 W/m 25,1 km/h (4 Bft) 95,74 %
26.02.2017 08:42 7,6 C 8,3 C 6,7 C 76 % 0 lf 1011,2 hPa 0,0 l/m 0 min 0 min 37 W/m 31,4 km/h (5 Bft) 91,49 %
26.02.2017 08:44 7,6 C 8,3 C 6,7 C 76 % 0 lf 1011,2 hPa 0,0 l/m 0 min 0 min 36 W/m 35,6 km/h (5 Bft) 97,87 %
26.02.2017 08:46 7,6 C 8,3 C 6,7 C 76 % 0 lf 1011,1 hPa 0,0 l/m 0 min 0 min 34 W/m 25,1 km/h (4 Bft) 91,30 %
26.02.2017 08:48 7,6 C 8,3 C 6,7 C 76 % 0 lf 1011,0 hPa 0,0 l/m 0 min 0 min 35 W/m 23,0 km/h (4 Bft) 97,87 %
26.02.2017 08:50 7,7 C 8,3 C 6,7 C 76 % 0 lf 1011,0 hPa 0,0 l/m 0 min 0 min 35 W/m 23,0 km/h (4 Bft) 100,00 %
26.02.2017 08:52 7,7 C 8,3 C 6,7 C 76 % 0 lf 1011,1 hPa 0,0 l/m 0 min 0 min 32 W/m 29,3 km/h (5 Bft) 95,74 %
26.02.2017 08:54 7,7 C 8,3 C 6,7 C 76 % 0 lf 1011,1 hPa 0,0 l/m 0 min 0 min 38 W/m 20,9 km/h (4 Bft) 97,87 %
26.02.2017 08:56 7,7 C 8,3 C 6,7 C 76 % 0 lf 1011,2 hPa 0,0 l/m 0 min 0 min 47 W/m 20,9 km/h (4 Bft) 95,65 %
26.02.2017 08:58 7,7 C 8,3 C 6,7 C 76 % 0 lf 1011,2 hPa 0,0 l/m 0 min 0 min 49 W/m 29,3 km/h (5 Bft) 97,87 %
26.02.2017 09:00 7,7 C 8,3 C 6,7 C 76 % 0 lf 1011,2 hPa 0,0 l/m 0 min 0 min 49 W/m 23,0 km/h (4 Bft) 97,87 %
26.02.2017 09:02 7,7 C 8,3 C 6,7 C 76 % 0 lf 1011,2 hPa 0,0 l/m 0 min 0 min 46 W/m 29,3 km/h (5 Bft) 100,00 %
26.02.2017 09:04 7,7 C 8,3 C 6,7 C 76 % 0 lf 1011,2 hPa 0,0 l/m 0 min 0 min 39 W/m 23,0 km/h (4 Bft) 97,87 %
26.02.2017 09:06 7,7 C 8,3 C 6,7 C 76 % 0 lf 1011,2 hPa 0,0 l/m 0 min 0 min 34 W/m 20,9 km/h (4 Bft) 100,00 %
26.02.2017 09:08 7,7 C 8,3 C 6,7 C 76 % 0 lf 1011,3 hPa 0,0 l/m 0 min 0 min 35 W/m 27,2 km/h (4 Bft) 100,00 %
26.02.2017 09:10 7,7 C 8,3 C 6,7 C 76 % 0 lf 1011,4 hPa 0,0 l/m 0 min 0 min 37 W/m 23,0 km/h (4 Bft) 97,87 %
26.02.2017 09:12 7,7 C 8,3 C 6,7 C 76 % 0 lf 1011,4 hPa 0,0 l/m 0 min 0 min 40 W/m 25,1 km/h (4 Bft) 97,87 %
26.02.2017 09:14 7,7 C 8,3 C 6,7 C 76 % 0 lf 1011,4 hPa 0,0 l/m 0 min 0 min 43 W/m 23,0 km/h (4 Bft) 95,74 %
26.02.2017 09:16 7,7 C 8,3 C 6,7 C 76 % 0 lf 1011,4 hPa 0,0 l/m 0 min 0 min 45 W/m 20,9 km/h (4 Bft) 95,74 %
26.02.2017 09:18 7,7 C 8,3 C 6,7 C 76 % 0 lf 1011,4 hPa 0,0 l/m 0 min 0 min 46 W/m 25,1 km/h (4 Bft) 97,87 %
26.02.2017 09:20 7,7 C 8,3 C 6,7 C 76 % 0 lf 1011,4 hPa 0,0 l/m 0 min 0 min 49 W/m 25,1 km/h (4 Bft) 100,00 %
26.02.2017 09:22 7,7 C 8,3 C 6,7 C 76 % 0 lf 1011,3 hPa 0,0 l/m 0 min 0 min 51 W/m 16,7 km/h (3 Bft) 97,87 %
26.02.2017 09:24 7,7 C 8,3 C 6,7 C 76 % 0 lf 1011,1 hPa 0,0 l/m 0 min 0 min 57 W/m 33,5 km/h (5 Bft) 93,62 %
26.02.2017 09:26 7,7 C 8,3 C 7,2 C 76 % 0 lf 1011,2 hPa 0,0 l/m 0 min 0 min 73 W/m 23,0 km/h (4 Bft) 100,00 %
26.02.2017 09:28 7,8 C 8,3 C 7,2 C 76 % 0 lf 1011,1 hPa 0,0 l/m 0 min 0 min 96 W/m 20,9 km/h (4 Bft) 100,00 %
26.02.2017 09:30 7,8 C 8,9 C 7,2 C 76 % 0 lf 1011,0 hPa 0,0 l/m 0 min 0 min 108 W/m 18,8 km/h (3 Bft) 93,62 %
26.02.2017 09:32 7,8 C 8,9 C 7,2 C 76 % 0 lf 1010,9 hPa 0,0 l/m 0 min 0 min 104 W/m 27,2 km/h (4 Bft) 93,48 %
26.02.2017 09:34 7,8 C 9,4 C 7,2 C 76 % 0 lf 1010,9 hPa 0,0 l/m 0 min 0 min 127 W/m 25,1 km/h (4 Bft) 91,49 %
26.02.2017 09:36 7,9 C 9,4 C 7,8 C 76 % 0 lf 1011,0 hPa 0,0 l/m 2 min 0 min 174 W/m 31,4 km/h (5 Bft) 95,74 %
26.02.2017 09:38 7,9 C 10,6 C 7,8 C 76 % 0 lf 1010,9 hPa 0,0 l/m 0 min 0 min 154 W/m 31,4 km/h (5 Bft) 93,62 %
26.02.2017 09:40 7,9 C 10,6 C 8,3 C 76 % 0 lf 1010,9 hPa 0,0 l/m 0 min 0 min 143 W/m 23,0 km/h (4 Bft) 95,74 %
26.02.2017 09:42 8,0 C 10,0 C 7,8 C 76 % 0 lf 1010,9 hPa 0,0 l/m 0 min 0 min 101 W/m 31,4 km/h (5 Bft) 91,49 %
26.02.2017 09:44 8,0 C 9,4 C 7,2 C 76 % 0 lf 1010,9 hPa 0,0 l/m 0 min 0 min 124 W/m 23,0 km/h (4 Bft) 93,48 %
26.02.2017 09:46 8,0 C 9,4 C 7,2 C 76 % 0 lf 1010,9 hPa 0,0 l/m 0 min 0 min 118 W/m 29,3 km/h (5 Bft) 95,74 %
26.02.2017 09:48 8,0 C 9,4 C 7,2 C 76 % 0 lf 1010,7 hPa 0,0 l/m 0 min 0 min 81 W/m 29,3 km/h (5 Bft) 95,74 %
26.02.2017 09:50 8,0 C 11,1 C 7,8 C 76 % 0 lf 1010,7 hPa 0,0 l/m 0 min 0 min 138 W/m 20,9 km/h (4 Bft) 91,49 %
26.02.2017 09:52 8,0 C 12,8 C 8,9 C 76 % 0 lf 1010,7 hPa 0,0 l/m 2 min 0 min 269 W/m 27,2 km/h (4 Bft) 91,49 %
26.02.2017 09:54 8,1 C 13,3 C 9,4 C 77 % 0 lf 1010,7 hPa 0,0 l/m 2 min 0 min 321 W/m 27,2 km/h (4 Bft) 93,62 %
26.02.2017 09:56 8,2 C 13,9 C 10,0 C 77 % 0 lf 1010,7 hPa 0,0 l/m 2 min 0 min 331 W/m 27,2 km/h (4 Bft) 95,65 %
26.02.2017 09:58 8,3 C 15,0 C 9,4 C 76 % 0 lf 1010,7 hPa 0,0 l/m 2 min 0 min 338 W/m 31,4 km/h (5 Bft) 95,74 %
26.02.2017 10:00 8,3 C 15,0 C 9,4 C 76 % 0 lf 1010,6 hPa 0,0 l/m 2 min 0 min 338 W/m 35,6 km/h (5 Bft) 95,74 %
26.02.2017 10:02 8,4 C 15,0 C 8,9 C 76 % 0 lf 1010,7 hPa 0,0 l/m 2 min 0 min 342 W/m 33,5 km/h (5 Bft) 89,36 %
26.02.2017 10:04 8,5 C 13,9 C 8,9 C 76 % 0 lf 1010,7 hPa 0,0 l/m 2 min 0 min 351 W/m 39,7 km/h (6 Bft) 89,36 %
26.02.2017 10:06 8,6 C 15,0 C 8,9 C 76 % 0 lf 1010,8 hPa 0,0 l/m 2 min 0 min 362 W/m 20,9 km/h (4 Bft) 95,74 %
26.02.2017 10:08 8,7 C 14,4 C 8,3 C 76 % 0 lf 1010,8 hPa 0,0 l/m 2 min 0 min 227 W/m 25,1 km/h (4 Bft) 93,48 %
26.02.2017 10:10 8,7 C 13,3 C 8,3 C 76 % 0 lf 1010,8 hPa 0,0 l/m 2 min 0 min 203 W/m 33,5 km/h (5 Bft) 93,62 %
26.02.2017 10:12 8,8 C 12,8 C 8,9 C 76 % 0 lf 1011,0 hPa 0,0 l/m 2 min 0 min 217 W/m 27,2 km/h (4 Bft) 95,74 %
26.02.2017 10:14 8,8 C 11,1 C 8,9 C 75 % 0 lf 1010,9 hPa 0,0 l/m 0 min 0 min 201 W/m 33,5 km/h (5 Bft) 91,49 %
26.02.2017 10:16 8,8 C 11,7 C 8,9 C 75 % 0 lf 1011,1 hPa 0,0 l/m 2 min 0 min 224 W/m 37,7 km/h (5 Bft) 97,87 %
26.02.2017 10:18 8,9 C 11,1 C 8,9 C 75 % 0 lf 1011,0 hPa 0,0 l/m 2 min 0 min 230 W/m 37,7 km/h (5 Bft) 93,48 %
26.02.2017 10:20 8,9 C 11,7 C 8,9 C 75 % 0 lf 1011,0 hPa 0,0 l/m 2 min 0 min 250 W/m 48,1 km/h (6 Bft) 97,87 %
26.02.2017 10:22 8,9 C 13,3 C 8,9 C 75 % 0 lf 1011,0 hPa 0,0 l/m 2 min 0 min 329 W/m 29,3 km/h (5 Bft) 95,74 %
26.02.2017 10:24 9,0 C 12,8 C 9,4 C 76 % 0 lf 1011,1 hPa 0,0 l/m 2 min 0 min 305 W/m 27,2 km/h (4 Bft) 95,74 %
26.02.2017 10:26 9,1 C 13,3 C 9,4 C 76 % 0 lf 1011,0 hPa 0,0 l/m 2 min 0 min 270 W/m 20,9 km/h (4 Bft) 97,87 %
26.02.2017 10:28 9,2 C 13,3 C 10,0 C 76 % 0 lf 1011,1 hPa 0,0 l/m 2 min 0 min 281 W/m 23,0 km/h (4 Bft) 95,74 %
26.02.2017 10:30 9,2 C 12,8 C 10,0 C 76 % 0 lf 1011,0 hPa 0,0 l/m 2 min 0 min 278 W/m 23,0 km/h (4 Bft) 97,87 %
26.02.2017 10:32 9,3 C 12,2 C 10,0 C 76 % 0 lf 1011,1 hPa 0,0 l/m 2 min 0 min 265 W/m 23,0 km/h (4 Bft) 100,00 %
26.02.2017 10:34 9,3 C 12,2 C 10,0 C 76 % 0 lf 1011,0 hPa 0,0 l/m 2 min 0 min 243 W/m 25,1 km/h (4 Bft) 91,49 %
26.02.2017 10:36 9,4 C 11,7 C 9,4 C 75 % 0 lf 1010,9 hPa 0,0 l/m 0 min 0 min 184 W/m 35,6 km/h (5 Bft) 97,87 %
26.02.2017 10:38 9,3 C 11,7 C 8,9 C 75 % 0 lf 1011,0 hPa 0,0 l/m 0 min 0 min 202 W/m 37,7 km/h (5 Bft) 97,87 %
26.02.2017 10:40 9,3 C 12,2 C 9,4 C 75 % 0 lf 1010,9 hPa 0,0 l/m 2 min 0 min 285 W/m 25,1 km/h (4 Bft) 97,87 %
26.02.2017 10:42 9,3 C 14,4 C 10,0 C 75 % 0 lf 1011,0 hPa 0,0 l/m 2 min 0 min 304 W/m 18,8 km/h (3 Bft) 93,48 %
26.02.2017 10:44 9,4 C 13,3 C 10,0 C 76 % 0 lf 1011,0 hPa 0,0 l/m 2 min 0 min 287 W/m 29,3 km/h (5 Bft) 93,62 %
26.02.2017 10:46 9,4 C 12,8 C 10,0 C 75 % 0 lf 1011,0 hPa 0,0 l/m 2 min 0 min 260 W/m 35,6 km/h (5 Bft) 97,87 %
26.02.2017 10:48 9,4 C 12,2 C 10,0 C 75 % 0 lf 1010,9 hPa 0,0 l/m 2 min 0 min 264 W/m 25,1 km/h (4 Bft) 97,87 %
26.02.2017 10:50 9,5 C 13,3 C 10,0 C 76 % 0 lf 1011,0 hPa 0,0 l/m 2 min 0 min 340 W/m 25,1 km/h (4 Bft) 97,87 %
26.02.2017 10:52 9,6 C 13,3 C 10,0 C 75 % 0 lf 1011,0 hPa 0,0 l/m 2 min 0 min 341 W/m 29,3 km/h (5 Bft) 95,74 %
26.02.2017 10:54 9,6 C 14,4 C 10,0 C 76 % 0 lf 1011,0 hPa 0,0 l/m 2 min 0 min 292 W/m 23,0 km/h (4 Bft) 95,65 %
26.02.2017 10:56 9,7 C 14,4 C 10,0 C 75 % 0 lf 1011,0 hPa 0,0 l/m 2 min 0 min 432 W/m 41,8 km/h (6 Bft) 93,62 %
26.02.2017 10:58 9,7 C 14,4 C 10,0 C 75 % 0 lf 1011,1 hPa 0,0 l/m 2 min 0 min 444 W/m 37,7 km/h (5 Bft) 97,87 %
26.02.2017 11:00 9,8 C 13,3 C 10,0 C 75 % 0 lf 1011,1 hPa 0,0 l/m 2 min 0 min 296 W/m 33,5 km/h (5 Bft) 97,87 %
26.02.2017 11:02 9,8 C 12,8 C 10,0 C 75 % 0 lf 1011,1 hPa 0,0 l/m 2 min 0 min 274 W/m 39,7 km/h (6 Bft) 95,74 %
26.02.2017 11:04 9,8 C 12,2 C 10,0 C 75 % 0 lf 1011,0 hPa 0,0 l/m 2 min 0 min 247 W/m 33,5 km/h (5 Bft) 97,87 %
26.02.2017 11:06 9,8 C 12,2 C 10,0 C 75 % 0 lf 1011,1 hPa 0,0 l/m 2 min 0 min 249 W/m 29,3 km/h (5 Bft) 93,48 %
26.02.2017 11:08 9,8 C 12,2 C 10,6 C 75 % 0 lf 1011,1 hPa 0,0 l/m 0 min 0 min 248 W/m 29,3 km/h (5 Bft) 97,87 %
26.02.2017 11:10 9,8 C 12,2 C 10,6 C 75 % 0 lf 1011,1 hPa 0,0 l/m 2 min 0 min 255 W/m 23,0 km/h (4 Bft) 95,74 %
26.02.2017 11:12 9,9 C 11,7 C 10,0 C 75 % 0 lf 1011,1 hPa 0,0 l/m 0 min 0 min 218 W/m 31,4 km/h (5 Bft) 97,87 %
26.02.2017 11:14 9,9 C 11,7 C 10,0 C 75 % 0 lf 1011,2 hPa 0,0 l/m 0 min 0 min 188 W/m 20,9 km/h (4 Bft) 97,87 %
26.02.2017 11:16 9,9 C 11,7 C 10,0 C 75 % 0 lf 1011,1 hPa 0,0 l/m 0 min 0 min 190 W/m 23,0 km/h (4 Bft) 97,87 %
26.02.2017 11:18 9,9 C 11,7 C 10,0 C 76 % 0 lf 1011,1 hPa 0,0 l/m 0 min 0 min 219 W/m 31,4 km/h (5 Bft) 95,65 %
26.02.2017 11:20 9,9 C 11,7 C 10,0 C 75 % 0 lf 1011,2 hPa 0,0 l/m 0 min 0 min 190 W/m 35,6 km/h (5 Bft) 97,87 %
26.02.2017 11:22 9,9 C 11,1 C 10,0 C 75 % 0 lf 1011,2 hPa 0,0 l/m 0 min 0 min 161 W/m 33,5 km/h (5 Bft) 97,87 %
26.02.2017 11:24 9,9 C 11,1 C 10,0 C 76 % 0 lf 1011,2 hPa 0,0 l/m 0 min 0 min 155 W/m 29,3 km/h (5 Bft) 95,74 %
26.02.2017 11:26 9,8 C 11,1 C 9,4 C 75 % 0 lf 1011,2 hPa 0,0 l/m 0 min 0 min 158 W/m 35,6 km/h (5 Bft) 97,87 %
26.02.2017 11:28 9,8 C 10,6 C 9,4 C 75 % 0 lf 1011,2 hPa 0,0 l/m 0 min 0 min 144 W/m 31,4 km/h (5 Bft) 95,65 %
26.02.2017 11:30 9,8 C 10,6 C 9,4 C 76 % 0 lf 1011,2 hPa 0,0 l/m 0 min 0 min 164 W/m 31,4 km/h (5 Bft) 97,87 %
26.02.2017 11:32 9,7 C 10,6 C 9,4 C 76 % 0 lf 1011,2 hPa 0,0 l/m 0 min 0 min 172 W/m 39,7 km/h (6 Bft) 95,74 %
26.02.2017 11:34 9,7 C 10,6 C 9,4 C 77 % 0 lf 1011,3 hPa 0,0 l/m 0 min 0 min 162 W/m 37,7 km/h (5 Bft) 95,74 %
26.02.2017 11:36 9,7 C 11,1 C 9,4 C 77 % 0 lf 1011,2 hPa 0,0 l/m 0 min 0 min 182 W/m 33,5 km/h (5 Bft) 95,74 %
26.02.2017 11:38 9,7 C 11,7 C 10,0 C 77 % 0 lf 1011,2 hPa 0,0 l/m 0 min 0 min 249 W/m 33,5 km/h (5 Bft) 97,87 %
26.02.2017 11:40 9,7 C 11,7 C 10,0 C 77 % 0 lf 1011,2 hPa 0,0 l/m 0 min 0 min 250 W/m 29,3 km/h (5 Bft) 97,83 %
26.02.2017 11:42 9,7 C 11,7 C 10,0 C 77 % 0 lf 1011,2 hPa 0,0 l/m 0 min 0 min 193 W/m 33,5 km/h (5 Bft) 95,74 %
26.02.2017 11:44 9,7 C 11,7 C 10,0 C 76 % 0 lf 1011,2 hPa 0,0 l/m 0 min 0 min 187 W/m 35,6 km/h (5 Bft) 95,74 %
26.02.2017 11:46 9,7 C 11,7 C 10,0 C 76 % 0 lf 1011,1 hPa 0,0 l/m 0 min 0 min 188 W/m 27,2 km/h (4 Bft) 100,00 %
26.02.2017 11:48 9,8 C 11,7 C 10,0 C 77 % 0 lf 1011,2 hPa 0,0 l/m 0 min 0 min 243 W/m 39,7 km/h (6 Bft) 97,87 %
26.02.2017 11:50 9,8 C 12,2 C 10,0 C 76 % 0 lf 1011,1 hPa 0,0 l/m 0 min 0 min 267 W/m 39,7 km/h (6 Bft) 97,87 %
26.02.2017 11:52 9,8 C 12,2 C 10,6 C 76 % 0 lf 1011,1 hPa 0,0 l/m 2 min 0 min 320 W/m 35,6 km/h (5 Bft) 97,83 %
26.02.2017 11:54 9,9 C 12,8 C 10,6 C 77 % 0 lf 1011,0 hPa 0,0 l/m 2 min 0 min 341 W/m 33,5 km/h (5 Bft) 100,00 %
26.02.2017 11:56 10,0 C 12,8 C 11,1 C 76 % 0 lf 1011,0 hPa 0,0 l/m 2 min 0 min 287 W/m 31,4 km/h (5 Bft) 97,87 %
26.02.2017 11:58 10,1 C 13,3 C 11,1 C 76 % 0 lf 1011,0 hPa 0,0 l/m 2 min 0 min 294 W/m 25,1 km/h (4 Bft) 95,74 %
26.02.2017 12:00 10,1 C 13,3 C 11,1 C 76 % 0 lf 1011,1 hPa 0,0 l/m 2 min 0 min 330 W/m 25,1 km/h (4 Bft) 100,00 %
26.02.2017 12:02 10,2 C 13,3 C 11,1 C 76 % 0 lf 1011,1 hPa 0,0 l/m 2 min 0 min 292 W/m 33,5 km/h (5 Bft) 97,87 %
26.02.2017 12:05 10,3 C 13,3 C 11,1 C 76 % 0 lf 1011,0 hPa 0,0 l/m 2 min 0 min 302 W/m 31,4 km/h (5 Bft) 100,00 %
26.02.2017 12:06 10,3 C 13,9 C 11,7 C 76 % 0 lf 1011,0 hPa 0,0 l/m 0 min 0 min 260 W/m 20,9 km/h (4 Bft) 91,30 %
26.02.2017 12:08 10,4 C 13,9 C 11,7 C 77 % 0 lf 1011,0 hPa 0,0 l/m 2 min 0 min 294 W/m 18,8 km/h (3 Bft) 95,74 %
26.02.2017 12:10 10,4 C 13,3 C 11,7 C 76 % 0 lf 1011,0 hPa 0,0 l/m 0 min 0 min 267 W/m 31,4 km/h (5 Bft) 91,49 %
26.02.2017 12:12 10,5 C 13,9 C 11,7 C 76 % 0 lf 1011,0 hPa 0,0 l/m 0 min 0 min 266 W/m 27,2 km/h (4 Bft) 100,00 %
26.02.2017 12:14 10,6 C 13,9 C 11,7 C 76 % 0 lf 1010,9 hPa 0,0 l/m 2 min 0 min 381 W/m 27,2 km/h (4 Bft) 100,00 %
26.02.2017 12:16 10,6 C 14,4 C 11,7 C 76 % 0 lf 1011,0 hPa 0,0 l/m 2 min 0 min 482 W/m 33,5 km/h (5 Bft) 95,65 %
26.02.2017 12:18 10,7 C 13,9 C 11,7 C 76 % 0 lf 1010,9 hPa 0,0 l/m 2 min 0 min 355 W/m 25,1 km/h (4 Bft) 97,87 %
26.02.2017 12:20 10,7 C 13,9 C 11,1 C 76 % 0 lf 1010,9 hPa 0,0 l/m 0 min 0 min 274 W/m 29,3 km/h (5 Bft) 89,36 %
26.02.2017 12:22 10,8 C 15,6 C 11,7 C 76 % 0 lf 1010,9 hPa 0,0 l/m 2 min 0 min 444 W/m 31,4 km/h (5 Bft) 93,62 %
26.02.2017 12:24 10,8 C 16,1 C 11,7 C 76 % 0 lf 1010,9 hPa 0,0 l/m 2 min 0 min 562 W/m 35,6 km/h (5 Bft) 95,74 %
26.02.2017 12:26 10,8 C 15,0 C 11,1 C 75 % 0 lf 1010,8 hPa 0,0 l/m 2 min 0 min 447 W/m 37,7 km/h (5 Bft) 95,65 %
26.02.2017 12:28 10,9 C 14,4 C 11,1 C 75 % 0 lf 1010,9 hPa 0,0 l/m 2 min 0 min 350 W/m 39,7 km/h (6 Bft) 95,74 %
26.02.2017 12:30 10,9 C 15,0 C 10,6 C 75 % 0 lf 1010,9 hPa 0,0 l/m 2 min 0 min 350 W/m 31,4 km/h (5 Bft) 93,62 %
26.02.2017 12:32 10,9 C 15,0 C 10,6 C 75 % 0 lf 1010,8 hPa 0,0 l/m 2 min 0 min 350 W/m 31,4 km/h (5 Bft) 91,49 %
26.02.2017 12:34 10,9 C 14,4 C 10,6 C 76 % 0 lf 1010,8 hPa 0,0 l/m 2 min 0 min 333 W/m 20,9 km/h (4 Bft) 93,62 %
26.02.2017 12:36 10,9 C 13,9 C 10,6 C 76 % 0 lf 1010,8 hPa 0,0 l/m 0 min 0 min 253 W/m 35,6 km/h (5 Bft) 93,62 %
26.02.2017 12:38 10,8 C 14,4 C 10,6 C 76 % 0 lf 1010,8 hPa 0,0 l/m 0 min 0 min 215 W/m 29,3 km/h (5 Bft) 93,48 %
26.02.2017 12:40 10,9 C 16,7 C 10,6 C 76 % 0 lf 1010,8 hPa 0,0 l/m 0 min 0 min 233 W/m 33,5 km/h (5 Bft) 95,74 %
26.02.2017 12:42 10,9 C 17,8 C 11,1 C 76 % 0 lf 1010,8 hPa 0,0 l/m 2 min 0 min 665 W/m 35,6 km/h (5 Bft) 91,49 %
26.02.2017 12:44 11,1 C 17,8 C 11,7 C 76 % 0 lf 1010,7 hPa 0,0 l/m 2 min 0 min 657 W/m 39,7 km/h (6 Bft) 95,74 %
26.02.2017 12:46 11,2 C 18,9 C 11,1 C 76 % 0 lf 1010,7 hPa 0,0 l/m 2 min 0 min 640 W/m 33,5 km/h (5 Bft) 93,62 %
26.02.2017 12:48 11,3 C 19,4 C 11,1 C 76 % 0 lf 1010,7 hPa 0,0 l/m 2 min 0 min 621 W/m 18,8 km/h (3 Bft) 93,62 %
26.02.2017 12:50 11,4 C 19,4 C 11,7 C 76 % 0 lf 1010,6 hPa 0,0 l/m 2 min 0 min 596 W/m 25,1 km/h (4 Bft) 93,48 %
26.02.2017 12:52 11,6 C 20,0 C 11,7 C 76 % 0 lf 1010,6 hPa 0,0 l/m 2 min 0 min 545 W/m 29,3 km/h (5 Bft) 93,62 %
26.02.2017 12:54 11,6 C 16,1 C 10,6 C 75 % 0 lf 1010,5 hPa 0,0 l/m 2 min 0 min 466 W/m 39,7 km/h (6 Bft) 93,62 %
26.02.2017 12:56 11,6 C 16,1 C 10,6 C 75 % 0 lf 1010,5 hPa 0,0 l/m 0 min 0 min 167 W/m 41,8 km/h (6 Bft) 93,62 %
26.02.2017 12:58 11,6 C 16,7 C 10,6 C 75 % 0 lf 1010,6 hPa 0,0 l/m 2 min 0 min 382 W/m 39,7 km/h (6 Bft) 93,62 %
26.02.2017 13:00 11,6 C 17,2 C 10,6 C 75 % 0 lf 1010,5 hPa 0,0 l/m 2 min 0 min 573 W/m 35,6 km/h (5 Bft) 89,36 %
26.02.2017 13:02 11,6 C 18,3 C 10,6 C 76 % 0 lf 1010,5 hPa 0,0 l/m 2 min 0 min 543 W/m 27,2 km/h (4 Bft) 91,30 %
26.02.2017 13:04 11,7 C 18,3 C 10,6 C 76 % 0 lf 1010,4 hPa 0,0 l/m 2 min 0 min 543 W/m 37,7 km/h (5 Bft) 93,62 %
26.02.2017 13:06 11,7 C 18,3 C 10,6 C 75 % 0 lf 1010,4 hPa 0,0 l/m 2 min 0 min 644 W/m 29,3 km/h (5 Bft) 95,74 %
26.02.2017 13:08 11,7 C 17,2 C 10,6 C 75 % 0 lf 1010,4 hPa 0,0 l/m 2 min 0 min 921 W/m 37,7 km/h (5 Bft) 93,62 %
26.02.2017 13:10 11,7 C 18,3 C 10,6 C 75 % 0 lf 1010,4 hPa 0,0 l/m 2 min 0 min 981 W/m 33,5 km/h (5 Bft) 95,74 %
26.02.2017 13:12 11,8 C 18,9 C 11,1 C 76 % 0 lf 1010,4 hPa 0,0 l/m 2 min 0 min 976 W/m 41,8 km/h (6 Bft) 87,23 %
26.02.2017 13:14 11,9 C 18,9 C 11,1 C 75 % 0 lf 1010,3 hPa 0,0 l/m 2 min 0 min 962 W/m 35,6 km/h (5 Bft) 95,65 %
26.02.2017 13:16 11,9 C 18,3 C 11,1 C 75 % 0 lf 1010,3 hPa 0,0 l/m 2 min 0 min 920 W/m 35,6 km/h (5 Bft) 91,49 %
26.02.2017 13:18 11,9 C 18,9 C 11,1 C 75 % 0 lf 1010,4 hPa 0,0 l/m 2 min 0 min 893 W/m 35,6 km/h (5 Bft) 95,74 %
26.02.2017 13:20 12,0 C 18,9 C 11,1 C 75 % 0 lf 1010,3 hPa 0,0 l/m 2 min 0 min 901 W/m 35,6 km/h (5 Bft) 93,62 %
26.02.2017 13:22 12,0 C 19,4 C 11,1 C 75 % 0 lf 1010,3 hPa 0,0 l/m 2 min 0 min 851 W/m 39,7 km/h (6 Bft) 97,87 %
26.02.2017 13:24 12,1 C 18,9 C 11,1 C 75 % 0 lf 1010,2 hPa 0,0 l/m 2 min 0 min 778 W/m 31,4 km/h (5 Bft) 97,83 %
26.02.2017 13:26 12,1 C 18,9 C 11,1 C 75 % 0 lf 1010,2 hPa 0,0 l/m 2 min 0 min 751 W/m 31,4 km/h (5 Bft) 100,00 %
26.02.2017 13:28 12,2 C 18,9 C 11,1 C 74 % 0 lf 1010,3 hPa 0,0 l/m 2 min 0 min 731 W/m 35,6 km/h (5 Bft) 100,00 %
26.02.2017 13:30 12,2 C 18,9 C 11,1 C 74 % 0 lf 1010,3 hPa 0,0 l/m 2 min 0 min 614 W/m 37,7 km/h (5 Bft) 93,62 %
26.02.2017 13:32 12,2 C 19,4 C 11,1 C 74 % 0 lf 1010,3 hPa 0,0 l/m 2 min 0 min 659 W/m 37,7 km/h (5 Bft) 97,87 %
26.02.2017 13:34 12,2 C 18,9 C 11,7 C 75 % 0 lf 1010,3 hPa 0,0 l/m 2 min 0 min 689 W/m 31,4 km/h (5 Bft) 100,00 %
26.02.2017 13:36 12,2 C 18,3 C 11,7 C 74 % 0 lf 1010,3 hPa 0,0 l/m 2 min 0 min 564 W/m 37,7 km/h (5 Bft) 100,00 %
26.02.2017 13:38 12,3 C 18,9 C 11,7 C 75 % 0 lf 1010,2 hPa 0,0 l/m 2 min 0 min 628 W/m 31,4 km/h (5 Bft) 97,87 %
26.02.2017 13:40 12,3 C 16,7 C 11,7 C 74 % 0 lf 1010,3 hPa 0,0 l/m 2 min 0 min 387 W/m 33,5 km/h (5 Bft) 97,87 %
26.02.2017 13:42 12,3 C 15,6 C 11,7 C 74 % 0 lf 1010,3 hPa 0,0 l/m 0 min 0 min 225 W/m 27,2 km/h (4 Bft) 97,87 %
26.02.2017 13:44 12,3 C 15,0 C 11,7 C 75 % 0 lf 1010,3 hPa 0,0 l/m 0 min 0 min 185 W/m 31,4 km/h (5 Bft) 97,87 %
26.02.2017 13:46 12,3 C 14,4 C 11,1 C 75 % 0 lf 1010,3 hPa 0,0 l/m 0 min 0 min 161 W/m 37,7 km/h (5 Bft) 97,87 %
26.02.2017 13:48 12,2 C 13,9 C 11,1 C 74 % 0 lf 1010,3 hPa 0,0 l/m 0 min 0 min 167 W/m 31,4 km/h (5 Bft) 95,65 %
26.02.2017 13:50 12,1 C 15,0 C 11,1 C 75 % 0 lf 1010,3 hPa 0,0 l/m 0 min 0 min 221 W/m 29,3 km/h (5 Bft) 95,74 %
26.02.2017 13:52 12,1 C 16,1 C 11,1 C 75 % 0 lf 1010,2 hPa 0,0 l/m 2 min 0 min 280 W/m 33,5 km/h (5 Bft) 93,62 %
26.02.2017 13:54 12,1 C 15,6 C 11,7 C 76 % 0 lf 1010,2 hPa 0,0 l/m 2 min 0 min 345 W/m 33,5 km/h (5 Bft) 95,74 %
26.02.2017 13:56 12,0 C 14,4 C 11,7 C 76 % 0 lf 1010,2 hPa 0,0 l/m 0 min 0 min 201 W/m 31,4 km/h (5 Bft) 97,87 %
26.02.2017 13:58 12,0 C 14,4 C 11,7 C 76 % 0 lf 1010,1 hPa 0,0 l/m 0 min 0 min 248 W/m 25,1 km/h (4 Bft) 97,87 %
26.02.2017 14:00 12,0 C 14,4 C 11,7 C 76 % 0 lf 1010,2 hPa 0,0 l/m 0 min 0 min 247 W/m 29,3 km/h (5 Bft) 97,83 %
26.02.2017 14:02 12,0 C 15,6 C 12,2 C 76 % 0 lf 1010,1 hPa 0,0 l/m 0 min 0 min 256 W/m 33,5 km/h (5 Bft) 95,74 %
26.02.2017 14:04 12,0 C 15,6 C 12,2 C 76 % 0 lf 1010,1 hPa 0,0 l/m 0 min 0 min 257 W/m 39,7 km/h (6 Bft) 91,49 %
26.02.2017 14:06 12,0 C 16,1 C 12,2 C 76 % 0 lf 1010,1 hPa 0,0 l/m 2 min 0 min 322 W/m 33,5 km/h (5 Bft) 95,74 %
26.02.2017 14:08 12,0 C 15,6 C 12,2 C 76 % 0 lf 1010,0 hPa 0,0 l/m 2 min 0 min 365 W/m 31,4 km/h (5 Bft) 97,87 %
26.02.2017 14:10 12,0 C 15,6 C 12,2 C 76 % 0 lf 1010,1 hPa 0,0 l/m 2 min 0 min 319 W/m 29,3 km/h (5 Bft) 97,87 %
26.02.2017 14:12 12,1 C 17,2 C 12,8 C 77 % 0 lf 1010,0 hPa 0,0 l/m 2 min 0 min 503 W/m 27,2 km/h (4 Bft) 95,65 %
26.02.2017 14:14 12,2 C 17,8 C 12,8 C 77 % 0 lf 1010,0 hPa 0,0 l/m 2 min 0 min 552 W/m 25,1 km/h (4 Bft) 93,62 %
26.02.2017 14:16 12,3 C 18,3 C 12,8 C 76 % 0 lf 1010,0 hPa 0,0 l/m 2 min 0 min 568 W/m 29,3 km/h (5 Bft) 97,87 %
26.02.2017 14:18 12,4 C 18,9 C 12,8 C 76 % 0 lf 1009,9 hPa 0,0 l/m 2 min 0 min 554 W/m 27,2 km/h (4 Bft) 97,87 %
26.02.2017 14:20 12,4 C 18,3 C 12,2 C 76 % 0 lf 1009,9 hPa 0,0 l/m 2 min 0 min 462 W/m 27,2 km/h (4 Bft) 97,87 %
26.02.2017 14:22 12,5 C 18,3 C 12,2 C 75 % 0 lf 1009,8 hPa 0,0 l/m 2 min 0 min 531 W/m 35,6 km/h (5 Bft) 97,87 %
26.02.2017 14:24 12,6 C 17,2 C 12,2 C 75 % 0 lf 1009,9 hPa 0,0 l/m 2 min 0 min 563 W/m 35,6 km/h (5 Bft) 97,83 %
26.02.2017 14:26 12,6 C 18,9 C 12,8 C 75 % 0 lf 1009,9 hPa 0,0 l/m 2 min 0 min 484 W/m 25,1 km/h (4 Bft) 97,87 %
26.02.2017 14:28 12,7 C 18,3 C 12,2 C 75 % 0 lf 1009,8 hPa 0,0 l/m 2 min 0 min 352 W/m 25,1 km/h (4 Bft) 100,00 %
26.02.2017 14:30 12,7 C 17,2 C 12,2 C 74 % 0 lf 1009,8 hPa 0,0 l/m 0 min 0 min 173 W/m 31,4 km/h (5 Bft) 97,87 %
26.02.2017 14:32 12,7 C 18,3 C 12,2 C 74 % 0 lf 1009,8 hPa 0,0 l/m 2 min 0 min 331 W/m 31,4 km/h (5 Bft) 100,00 %
26.02.2017 14:34 12,7 C 17,8 C 12,2 C 75 % 0 lf 1009,9 hPa 0,0 l/m 2 min 0 min 457 W/m 31,4 km/h (5 Bft) 97,83 %
26.02.2017 14:36 12,7 C 17,8 C 12,8 C 74 % 0 lf 1009,8 hPa 0,0 l/m 2 min 0 min 360 W/m 41,8 km/h (6 Bft) 97,87 %
26.02.2017 14:38 12,8 C 17,8 C 12,8 C 74 % 0 lf 1009,8 hPa 0,0 l/m 2 min 0 min 410 W/m 33,5 km/h (5 Bft) 97,87 %
26.02.2017 14:40 12,8 C 18,3 C 13,3 C 74 % 0 lf 1009,8 hPa 0,0 l/m 2 min 0 min 540 W/m 35,6 km/h (5 Bft) 97,87 %
26.02.2017 14:42 12,8 C 17,8 C 13,9 C 74 % 0 lf 1009,8 hPa 0,0 l/m 2 min 0 min 431 W/m 29,3 km/h (5 Bft) 100,00 %
26.02.2017 14:44 12,8 C 18,3 C 13,9 C 74 % 0 lf 1009,8 hPa 0,0 l/m 2 min 0 min 445 W/m 31,4 km/h (5 Bft) 100,00 %
26.02.2017 14:46 12,9 C 17,8 C 13,9 C 74 % 0 lf 1009,9 hPa 0,0 l/m 2 min 0 min 458 W/m 33,5 km/h (5 Bft) 100,00 %
26.02.2017 14:48 12,9 C 17,8 C 13,9 C 74 % 0 lf 1009,8 hPa 0,0 l/m 2 min 0 min 390 W/m 33,5 km/h (5 Bft) 97,83 %
26.02.2017 14:50 12,9 C 18,3 C 13,9 C 74 % 0 lf 1009,8 hPa 0,0 l/m 2 min 0 min 426 W/m 33,5 km/h (5 Bft) 97,87 %
26.02.2017 14:52 12,9 C 18,9 C 14,4 C 74 % 0 lf 1009,8 hPa 0,0 l/m 2 min 0 min 526 W/m 25,1 km/h (4 Bft) 97,87 %
26.02.2017 14:54 13,0 C 18,3 C 14,4 C 74 % 0 lf 1009,9 hPa 0,0 l/m 2 min 0 min 437 W/m 27,2 km/h (4 Bft) 100,00 %
26.02.2017 14:56 13,1 C 17,2 C 13,9 C 74 % 0 lf 1009,7 hPa 0,0 l/m 2 min 0 min 262 W/m 25,1 km/h (4 Bft) 100,00 %
26.02.2017 14:58 13,1 C 15,6 C 13,3 C 73 % 0 lf 1009,7 hPa 0,0 l/m 2 min 0 min 226 W/m 39,7 km/h (6 Bft) 97,83 %
26.02.2017 15:00 13,0 C 15,6 C 12,8 C 73 % 0 lf 1009,8 hPa 0,0 l/m 2 min 0 min 232 W/m 33,5 km/h (5 Bft) 95,74 %
26.02.2017 15:02 12,9 C 15,0 C 12,8 C 74 % 0 lf 1009,8 hPa 0,0 l/m 2 min 0 min 241 W/m 41,8 km/h (6 Bft) 97,87 %
26.02.2017 15:04 12,8 C 14,4 C 12,8 C 74 % 0 lf 1009,7 hPa 0,0 l/m 2 min 0 min 246 W/m 37,7 km/h (5 Bft) 97,87 %
26.02.2017 15:06 12,7 C 14,4 C 12,2 C 74 % 0 lf 1009,7 hPa 0,0 l/m 2 min 0 min 259 W/m 31,4 km/h (5 Bft) 93,62 %
26.02.2017 15:08 12,7 C 14,4 C 12,2 C 75 % 0 lf 1009,8 hPa 0,0 l/m 2 min 0 min 235 W/m 31,4 km/h (5 Bft) 91,49 %
26.02.2017 15:10 12,6 C 14,4 C 12,2 C 75 % 0 lf 1009,8 hPa 0,0 l/m 0 min 0 min 206 W/m 29,3 km/h (5 Bft) 93,48 %
26.02.2017 15:12 12,5 C 14,4 C 12,2 C 75 % 0 lf 1009,8 hPa 0,0 l/m 0 min 0 min 191 W/m 27,2 km/h (4 Bft) 97,87 %
26.02.2017 15:14 12,4 C 13,9 C 12,2 C 75 % 0 lf 1009,8 hPa 0,0 l/m 0 min 0 min 193 W/m 27,2 km/h (4 Bft) 93,62 %
26.02.2017 15:16 12,4 C 13,9 C 12,2 C 75 % 0 lf 1009,8 hPa 0,0 l/m 0 min 0 min 190 W/m 20,9 km/h (4 Bft) 95,74 %
26.02.2017 15:18 12,4 C 13,3 C 12,2 C 75 % 0 lf 1009,8 hPa 0,0 l/m 0 min 0 min 171 W/m 29,3 km/h (5 Bft) 95,74 %
26.02.2017 15:20 12,3 C 13,9 C 12,2 C 75 % 0 lf 1009,8 hPa 0,0 l/m 0 min 0 min 174 W/m 25,1 km/h (4 Bft) 93,62 %
26.02.2017 15:22 12,3 C 13,9 C 12,2 C 75 % 0 lf 1009,7 hPa 0,0 l/m 0 min 0 min 199 W/m 20,9 km/h (4 Bft) 93,48 %
26.02.2017 15:24 12,3 C 13,9 C 12,2 C 76 % 0 lf 1009,8 hPa 0,0 l/m 0 min 0 min 179 W/m 33,5 km/h (5 Bft) 95,74 %
26.02.2017 15:26 12,3 C 13,9 C 12,2 C 76 % 0 lf 1009,6 hPa 0,0 l/m 0 min 0 min 196 W/m 25,1 km/h (4 Bft) 93,62 %
26.02.2017 15:28 12,3 C 15,0 C 12,8 C 76 % 0 lf 1009,6 hPa 0,0 l/m 2 min 0 min 251 W/m 18,8 km/h (3 Bft) 95,74 %
26.02.2017 15:30 12,3 C 15,0 C 12,8 C 76 % 0 lf 1009,6 hPa 0,0 l/m 2 min 0 min 228 W/m 18,8 km/h (3 Bft) 91,49 %
26.02.2017 15:32 12,3 C 14,4 C 12,2 C 76 % 0 lf 1009,5 hPa 0,0 l/m 0 min 0 min 174 W/m 25,1 km/h (4 Bft) 95,74 %
26.02.2017 15:34 12,4 C 15,6 C 12,2 C 76 % 0 lf 1009,5 hPa 0,0 l/m 2 min 0 min 206 W/m 20,9 km/h (4 Bft) 93,48 %
26.02.2017 15:36 12,4 C 16,1 C 12,2 C 76 % 0 lf 1009,5 hPa 0,0 l/m 2 min 0 min 340 W/m 31,4 km/h (5 Bft) 93,62 %
26.02.2017 15:38 12,5 C 16,1 C 12,2 C 75 % 0 lf 1009,6 hPa 0,0 l/m 2 min 0 min 351 W/m 31,4 km/h (5 Bft) 95,74 %
26.02.2017 15:40 12,5 C 15,6 C 12,2 C 75 % 0 lf 1009,5 hPa 0,0 l/m 2 min 0 min 266 W/m 18,8 km/h (3 Bft) 95,74 %
26.02.2017 15:42 12,6 C 16,1 C 12,2 C 75 % 0 lf 1009,5 hPa 0,0 l/m 0 min 0 min 125 W/m 23,0 km/h (4 Bft) 95,74 %
26.02.2017 15:44 12,6 C 15,6 C 12,2 C 75 % 0 lf 1009,5 hPa 0,0 l/m 0 min 0 min 161 W/m 20,9 km/h (4 Bft) 91,49 %
26.02.2017 15:46 12,6 C 15,0 C 12,2 C 75 % 0 lf 1009,5 hPa 0,0 l/m 0 min 0 min 159 W/m 20,9 km/h (4 Bft) 95,65 %
26.02.2017 15:48 12,6 C 14,4 C 11,7 C 74 % 0 lf 1009,5 hPa 0,0 l/m 0 min 0 min 144 W/m 23,0 km/h (4 Bft) 91,49 %
26.02.2017 15:50 12,6 C 13,3 C 12,2 C 74 % 0 lf 1009,5 hPa 0,0 l/m 0 min 0 min 125 W/m 27,2 km/h (4 Bft) 91,49 %
26.02.2017 15:52 12,6 C 13,3 C 11,7 C 74 % 0 lf 1009,6 hPa 0,0 l/m 0 min 0 min 104 W/m 31,4 km/h (5 Bft) 91,49 %
26.02.2017 15:54 12,6 C 13,3 C 11,7 C 75 % 0 lf 1009,6 hPa 0,0 l/m 0 min 0 min 106 W/m 25,1 km/h (4 Bft) 95,74 %
26.02.2017 15:56 12,5 C 12,8 C 11,7 C 75 % 0 lf 1009,6 hPa 0,0 l/m 0 min 0 min 90 W/m 31,4 km/h (5 Bft) 93,62 %
26.02.2017 15:58 12,4 C 12,8 C 11,7 C 76 % 0 lf 1009,7 hPa 0,0 l/m 0 min 0 min 93 W/m 27,2 km/h (4 Bft) 93,48 %
26.02.2017 16:00 12,4 C 12,8 C 11,7 C 76 % 0 lf 1009,6 hPa 0,0 l/m 0 min 0 min 105 W/m 29,3 km/h (5 Bft) 95,74 %
26.02.2017 16:02 12,4 C 12,8 C 11,7 C 76 % 0 lf 1009,5 hPa 0,0 l/m 0 min 0 min 115 W/m 31,4 km/h (5 Bft) 93,62 %
26.02.2017 16:04 12,3 C 12,8 C 11,7 C 76 % 0 lf 1009,6 hPa 0,0 l/m 0 min 0 min 118 W/m 31,4 km/h (5 Bft) 97,87 %
26.02.2017 16:06 12,3 C 12,8 C 11,7 C 76 % 0 lf 1009,6 hPa 0,0 l/m 0 min 0 min 111 W/m 35,6 km/h (5 Bft) 93,62 %
26.02.2017 16:08 12,2 C 12,8 C 11,1 C 76 % 0 lf 1009,6 hPa 0,0 l/m 0 min 0 min 96 W/m 33,5 km/h (5 Bft) 97,83 %
26.02.2017 16:10 12,2 C 12,8 C 11,1 C 77 % 0 lf 1009,7 hPa 0,0 l/m 0 min 0 min 103 W/m 31,4 km/h (5 Bft) 95,74 %
26.02.2017 16:12 12,1 C 12,8 C 11,1 C 77 % 0 lf 1009,6 hPa 0,0 l/m 0 min 0 min 107 W/m 23,0 km/h (4 Bft) 95,74 %
26.02.2017 16:14 12,1 C 12,8 C 11,1 C 77 % 0 lf 1009,5 hPa 0,0 l/m 0 min 0 min 97 W/m 27,2 km/h (4 Bft) 97,87 %
26.02.2017 16:16 12,1 C 12,8 C 11,1 C 77 % 0 lf 1009,6 hPa 0,0 l/m 0 min 0 min 91 W/m 25,1 km/h (4 Bft) 97,87 %
26.02.2017 16:18 12,1 C 12,8 C 11,1 C 77 % 0 lf 1009,6 hPa 0,0 l/m 0 min 0 min 103 W/m 29,3 km/h (5 Bft) 100,00 %
26.02.2017 16:20 12,0 C 12,8 C 11,7 C 77 % 0 lf 1009,5 hPa 0,0 l/m 0 min 0 min 139 W/m 23,0 km/h (4 Bft) 97,83 %
26.02.2017 16:22 12,0 C 12,8 C 11,1 C 77 % 0 lf 1009,5 hPa 0,0 l/m 0 min 0 min 102 W/m 27,2 km/h (4 Bft) 95,74 %
26.02.2017 16:24 12,0 C 12,8 C 11,1 C 77 % 0 lf 1009,5 hPa 0,0 l/m 0 min 0 min 84 W/m 20,9 km/h (4 Bft) 97,87 %
26.02.2017 16:26 12,0 C 12,8 C 11,1 C 77 % 0 lf 1009,5 hPa 0,0 l/m 0 min 0 min 80 W/m 20,9 km/h (4 Bft) 97,87 %
26.02.2017 16:28 12,0 C 12,8 C 11,1 C 78 % 0 lf 1009,5 hPa 0,0 l/m 0 min 0 min 84 W/m 20,9 km/h (4 Bft) 97,87 %
26.02.2017 16:30 12,0 C 12,8 C 11,1 C 78 % 0 lf 1009,4 hPa 0,0 l/m 0 min 0 min 71 W/m 12,6 km/h (3 Bft) 95,74 %
26.02.2017 16:32 11,9 C 12,8 C 11,1 C 78 % 0 lf 1009,4 hPa 0,0 l/m 0 min 0 min 64 W/m 31,4 km/h (5 Bft) 95,65 %
26.02.2017 16:34 11,9 C 12,2 C 11,1 C 77 % 0 lf 1009,4 hPa 0,0 l/m 0 min 0 min 56 W/m 20,9 km/h (4 Bft) 95,74 %
26.02.2017 16:36 11,9 C 12,2 C 11,1 C 77 % 0 lf 1009,4 hPa 0,0 l/m 0 min 0 min 59 W/m 25,1 km/h (4 Bft) 95,74 %
26.02.2017 16:38 11,9 C 12,2 C 11,1 C 77 % 0 lf 1009,5 hPa 0,0 l/m 0 min 0 min 70 W/m 27,2 km/h (4 Bft) 91,49 %
26.02.2017 16:40 11,9 C 12,2 C 11,1 C 77 % 0 lf 1009,5 hPa 0,0 l/m 0 min 0 min 85 W/m 37,7 km/h (5 Bft) 97,87 %
26.02.2017 16:42 11,9 C 12,2 C 11,1 C 77 % 0 lf 1009,5 hPa 0,0 l/m 0 min 0 min 76 W/m 25,1 km/h (4 Bft) 97,87 %
26.02.2017 16:44 11,9 C 12,2 C 10,6 C 77 % 0 lf 1009,4 hPa 0,0 l/m 0 min 0 min 64 W/m 35,6 km/h (5 Bft) 97,83 %
26.02.2017 16:46 11,9 C 12,2 C 10,6 C 77 % 0 lf 1009,4 hPa 0,0 l/m 0 min 0 min 60 W/m 27,2 km/h (4 Bft) 97,87 %
26.02.2017 16:48 11,8 C 12,2 C 10,6 C 77 % 0 lf 1009,5 hPa 0,0 l/m 0 min 0 min 46 W/m 25,1 km/h (4 Bft) 95,74 %
26.02.2017 16:50 11,8 C 12,2 C 10,6 C 77 % 0 lf 1009,4 hPa 0,0 l/m 0 min 0 min 43 W/m 20,9 km/h (4 Bft) 97,87 %
26.02.2017 16:52 11,8 C 12,2 C 10,6 C 78 % 0 lf 1009,5 hPa 0,0 l/m 0 min 0 min 41 W/m 23,0 km/h (4 Bft) 93,62 %
26.02.2017 16:54 11,8 C 12,2 C 10,6 C 77 % 0 lf 1009,5 hPa 0,0 l/m 0 min 0 min 44 W/m 25,1 km/h (4 Bft) 97,87 %
26.02.2017 16:56 11,8 C 12,2 C 10,6 C 78 % 0 lf 1009,5 hPa 0,0 l/m 0 min 0 min 50 W/m 39,7 km/h (6 Bft) 93,48 %
26.02.2017 16:58 11,7 C 12,2 C 10,6 C 78 % 0 lf 1009,4 hPa 0,0 l/m 0 min 0 min 41 W/m 18,8 km/h (3 Bft) 97,87 %
26.02.2017 17:00 11,7 C 12,2 C 10,6 C 78 % 0 lf 1009,4 hPa 0,0 l/m 0 min 0 min 37 W/m 23,0 km/h (4 Bft) 95,74 %
26.02.2017 17:02 11,7 C 11,7 C 10,6 C 78 % 0 lf 1009,4 hPa 0,0 l/m 0 min 0 min 33 W/m 31,4 km/h (5 Bft) 95,74 %
26.02.2017 17:04 11,7 C 11,7 C 10,6 C 79 % 0 lf 1009,4 hPa 0,0 l/m 0 min 0 min 43 W/m 27,2 km/h (4 Bft) 97,87 %
26.02.2017 17:06 11,6 C 11,7 C 10,6 C 79 % 0 lf 1009,4 hPa 0,0 l/m 0 min 0 min 37 W/m 31,4 km/h (5 Bft) 97,83 %
26.02.2017 17:08 11,6 C 11,7 C 10,6 C 79 % 0 lf 1009,4 hPa 0,0 l/m 0 min 0 min 31 W/m 33,5 km/h (5 Bft) 97,87 %
26.02.2017 17:10 11,6 C 11,7 C 10,0 C 79 % 0 lf 1009,3 hPa 0,0 l/m 0 min 0 min 32 W/m 18,8 km/h (3 Bft) 97,87 %
26.02.2017 17:12 11,6 C 11,7 C 10,0 C 79 % 0 lf 1009,4 hPa 0,0 l/m 0 min 0 min 40 W/m 20,9 km/h (4 Bft) 91,49 %
26.02.2017 17:14 11,6 C 11,7 C 10,6 C 79 % 0 lf 1009,3 hPa 0,0 l/m 0 min 0 min 44 W/m 12,6 km/h (3 Bft) 93,62 %
26.02.2017 17:16 11,6 C 12,2 C 10,6 C 79 % 0 lf 1009,4 hPa 0,0 l/m 0 min 0 min 49 W/m 23,0 km/h (4 Bft) 97,87 %
26.02.2017 17:18 11,6 C 11,7 C 10,6 C 80 % 0 lf 1009,3 hPa 0,0 l/m 0 min 0 min 51 W/m 20,9 km/h (4 Bft) 95,65 %
26.02.2017 17:20 11,5 C 11,7 C 10,0 C 80 % 0 lf 1009,3 hPa 0,0 l/m 0 min 0 min 37 W/m 25,1 km/h (4 Bft) 95,74 %
26.02.2017 17:22 11,5 C 11,7 C 10,0 C 80 % 0 lf 1009,3 hPa 0,0 l/m 0 min 0 min 29 W/m 20,9 km/h (4 Bft) 97,87 %
26.02.2017 17:24 11,5 C 11,7 C 10,0 C 80 % 0 lf 1009,3 hPa 0,0 l/m 0 min 0 min 37 W/m 20,9 km/h (4 Bft) 97,87 %
26.02.2017 17:26 11,5 C 11,7 C 10,0 C 80 % 0 lf 1009,2 hPa 0,0 l/m 0 min 0 min 32 W/m 18,8 km/h (3 Bft) 93,62 %
26.02.2017 17:28 11,4 C 11,7 C 10,0 C 80 % 0 lf 1009,3 hPa 0,0 l/m 0 min 0 min 51 W/m 18,8 km/h (3 Bft) 91,49 %
26.02.2017 17:30 11,4 C 11,7 C 10,0 C 80 % 0 lf 1009,3 hPa 0,0 l/m 2 min 0 min 132 W/m 25,1 km/h (4 Bft) 95,65 %
26.02.2017 17:32 11,4 C 11,7 C 10,0 C 81 % 0 lf 1009,4 hPa 0,0 l/m 2 min 0 min 59 W/m 18,8 km/h (3 Bft) 97,87 %
26.02.2017 17:34 11,4 C 11,7 C 10,0 C 81 % 0 lf 1009,4 hPa 0,0 l/m 0 min 0 min 34 W/m 20,9 km/h (4 Bft) 93,62 %
26.02.2017 17:36 11,4 C 11,7 C 10,0 C 81 % 0 lf 1009,4 hPa 0,0 l/m 0 min 0 min 29 W/m 29,3 km/h (5 Bft) 95,74 %
26.02.2017 17:38 11,4 C 11,7 C 10,0 C 81 % 0 lf 1009,4 hPa 0,0 l/m 0 min 0 min 28 W/m 18,8 km/h (3 Bft) 95,74 %
26.02.2017 17:40 11,4 C 11,7 C 10,0 C 81 % 0 lf 1009,4 hPa 0,0 l/m 0 min 0 min 22 W/m 18,8 km/h (3 Bft) 97,87 %
26.02.2017 17:42 11,4 C 11,7 C 10,0 C 81 % 0 lf 1009,4 hPa 0,0 l/m 0 min 0 min 18 W/m 23,0 km/h (4 Bft) 93,48 %
26.02.2017 17:44 11,4 C 11,7 C 10,0 C 81 % 0 lf 1009,3 hPa 0,0 l/m 0 min 0 min 20 W/m 23,0 km/h (4 Bft) 95,74 %
26.02.2017 17:46 11,4 C 11,7 C 10,0 C 81 % 0 lf 1009,3 hPa 0,0 l/m 0 min 0 min 21 W/m 18,8 km/h (3 Bft) 97,87 %
26.02.2017 17:48 11,4 C 11,7 C 10,0 C 81 % 0 lf 1009,3 hPa 0,0 l/m 2 min 0 min 24 W/m 25,1 km/h (4 Bft) 95,74 %
26.02.2017 17:50 11,3 C 11,7 C 10,0 C 81 % 0 lf 1009,3 hPa 0,0 l/m 2 min 0 min 25 W/m 29,3 km/h (5 Bft) 93,62 %
26.02.2017 17:52 11,3 C 11,7 C 10,0 C 81 % 0 lf 1009,3 hPa 0,0 l/m 2 min 0 min 24 W/m 20,9 km/h (4 Bft) 95,74 %
26.02.2017 17:54 11,3 C 11,7 C 10,0 C 81 % 0 lf 1009,3 hPa 0,0 l/m 2 min 0 min 21 W/m 20,9 km/h (4 Bft) 93,48 %
26.02.2017 17:56 11,3 C 11,7 C 10,0 C 81 % 0 lf 1009,3 hPa 0,0 l/m 0 min 0 min 16 W/m 18,8 km/h (3 Bft) 95,74 %
26.02.2017 17:58 11,3 C 11,7 C 9,4 C 81 % 0 lf 1009,3 hPa 0,0 l/m 0 min 0 min 15 W/m 23,0 km/h (4 Bft) 91,49 %
26.02.2017 18:00 11,3 C 11,1 C 10,0 C 81 % 0 lf 1009,3 hPa 0,0 l/m 0 min 0 min 10 W/m 35,6 km/h (5 Bft) 95,74 %
26.02.2017 18:02 11,2 C 11,1 C 9,4 C 81 % 0 lf 1009,3 hPa 0,0 l/m 0 min 0 min 9 W/m 25,1 km/h (4 Bft) 93,62 %
26.02.2017 18:06 11,2 C 11,1 C 9,4 C 81 % 0 lf 1009,4 hPa 0,0 l/m 0 min 0 min 8 W/m 18,8 km/h (3 Bft) 96,88 %
26.02.2017 18:08 11,2 C 11,1 C 9,4 C 81 % 0 lf 1009,4 hPa 0,0 l/m 0 min 0 min 8 W/m 27,2 km/h (4 Bft) 95,74 %
26.02.2017 18:10 11,2 C 11,1 C 9,4 C 81 % 0 lf 1009,5 hPa 0,0 l/m 0 min 0 min 8 W/m 23,0 km/h (4 Bft) 97,87 %
26.02.2017 18:12 11,2 C 11,1 C 9,4 C 81 % 0 lf 1009,5 hPa 0,0 l/m 0 min 0 min 7 W/m 27,2 km/h (4 Bft) 95,74 %
26.02.2017 18:14 11,1 C 11,1 C 9,4 C 81 % 0 lf 1009,5 hPa 0,0 l/m 0 min 0 min 6 W/m 41,8 km/h (6 Bft) 95,74 %
26.02.2017 18:16 11,1 C 11,1 C 9,4 C 82 % 0 lf 1009,4 hPa 0,0 l/m 0 min 0 min 6 W/m 39,7 km/h (6 Bft) 95,65 %
26.02.2017 18:18 11,1 C 11,1 C 9,4 C 81 % 0 lf 1009,4 hPa 0,0 l/m 0 min 0 min 4 W/m 35,6 km/h (5 Bft) 97,87 %
26.02.2017 18:20 11,1 C 11,1 C 9,4 C 81 % 0 lf 1009,4 hPa 0,0 l/m 0 min 0 min 4 W/m 29,3 km/h (5 Bft) 97,87 %
26.02.2017 18:22 11,1 C 11,1 C 9,4 C 81 % 0 lf 1009,4 hPa 0,0 l/m 0 min 0 min 4 W/m 27,2 km/h (4 Bft) 97,87 %
26.02.2017 18:24 11,1 C 11,1 C 9,4 C 82 % 0 lf 1009,5 hPa 0,0 l/m 0 min 0 min 4 W/m 20,9 km/h (4 Bft) 95,74 %
26.02.2017 18:26 11,1 C 11,1 C 9,4 C 82 % 0 lf 1009,5 hPa 0,0 l/m 0 min 0 min 4 W/m 18,8 km/h (3 Bft) 97,87 %
26.02.2017 18:28 11,1 C 11,1 C 9,4 C 82 % 0 lf 1009,6 hPa 0,0 l/m 0 min 0 min 4 W/m 16,7 km/h (3 Bft) 95,65 %
26.02.2017 18:30 11,1 C 11,1 C 9,4 C 82 % 0 lf 1009,6 hPa 0,0 l/m 0 min 0 min 2 W/m 20,9 km/h (4 Bft) 95,74 %
26.02.2017 18:32 11,1 C 11,1 C 9,4 C 82 % 0 lf 1009,7 hPa 0,0 l/m 0 min 0 min 2 W/m 20,9 km/h (4 Bft) 95,74 %
26.02.2017 18:34 11,1 C 11,1 C 9,4 C 82 % 0 lf 1009,7 hPa 0,0 l/m 0 min 0 min 2 W/m 20,9 km/h (4 Bft) 97,87 %
26.02.2017 18:36 11,0 C 11,1 C 9,4 C 82 % 0 lf 1009,7 hPa 0,0 l/m 0 min 0 min 0 W/m 18,8 km/h (3 Bft) 95,74 %
26.02.2017 18:38 11,0 C 11,1 C 9,4 C 82 % 0 lf 1009,8 hPa 0,0 l/m 0 min 0 min 0 W/m 20,9 km/h (4 Bft) 95,74 %
26.02.2017 18:40 11,0 C 11,1 C 9,4 C 82 % 0 lf 1009,8 hPa 0,0 l/m 0 min 0 min 0 W/m 23,0 km/h (4 Bft) 95,65 %
26.02.2017 18:42 10,9 C 11,1 C 9,4 C 82 % 0 lf 1009,8 hPa 0,0 l/m 0 min 0 min 0 W/m 37,7 km/h (5 Bft) 95,74 %
26.02.2017 18:44 10,9 C 11,1 C 9,4 C 82 % 0 lf 1009,8 hPa 0,0 l/m 0 min 0 min 0 W/m 25,1 km/h (4 Bft) 97,87 %
26.02.2017 18:46 10,9 C 11,1 C 9,4 C 82 % 0 lf 1009,8 hPa 0,0 l/m 0 min 0 min 0 W/m 31,4 km/h (5 Bft) 95,74 %
26.02.2017 18:48 10,9 C 11,1 C 9,4 C 82 % 0 lf 1009,8 hPa 0,0 l/m 0 min 0 min 0 W/m 23,0 km/h (4 Bft) 95,74 %
26.02.2017 18:50 10,9 C 11,1 C 9,4 C 82 % 0 lf 1009,8 hPa 0,0 l/m 0 min 0 min 0 W/m 20,9 km/h (4 Bft) 93,62 %
26.02.2017 18:52 10,8 C 11,1 C 9,4 C 82 % 0 lf 1009,8 hPa 0,0 l/m 0 min 0 min 1 W/m 23,0 km/h (4 Bft) 93,48 %
26.02.2017 18:54 10,8 C 11,1 C 9,4 C 82 % 0 lf 1009,8 hPa 0,0 l/m 0 min 0 min 0 W/m 20,9 km/h (4 Bft) 95,74 %
26.02.2017 18:56 10,8 C 10,6 C 9,4 C 82 % 0 lf 1009,9 hPa 0,0 l/m 0 min 0 min 0 W/m 18,8 km/h (3 Bft) 97,87 %
26.02.2017 18:58 10,8 C 10,6 C 9,4 C 82 % 0 lf 1009,8 hPa 0,0 l/m 0 min 0 min 0 W/m 16,7 km/h (3 Bft) 97,87 %
26.02.2017 19:00 10,8 C 10,6 C 9,4 C 82 % 0 lf 1009,8 hPa 0,0 l/m 0 min 0 min 2 W/m 18,8 km/h (3 Bft) 95,74 %
26.02.2017 19:02 10,8 C 10,6 C 8,9 C 83 % 0 lf 1009,8 hPa 0,0 l/m 0 min 0 min 2 W/m 14,6 km/h (3 Bft) 95,74 %
26.02.2017 19:04 10,7 C 10,6 C 8,9 C 83 % 0 lf 1009,8 hPa 0,0 l/m 0 min 0 min 2 W/m 23,0 km/h (4 Bft) 93,48 %
26.02.2017 19:06 10,7 C 10,6 C 8,9 C 83 % 0 lf 1009,8 hPa 0,0 l/m 0 min 0 min 2 W/m 23,0 km/h (4 Bft) 97,87 %
26.02.2017 19:08 10,7 C 10,6 C 8,9 C 83 % 0 lf 1009,8 hPa 0,0 l/m 0 min 0 min 0 W/m 25,1 km/h (4 Bft) 93,62 %
26.02.2017 19:10 10,7 C 10,6 C 8,9 C 83 % 0 lf 1009,8 hPa 0,0 l/m 0 min 0 min 0 W/m 25,1 km/h (4 Bft) 97,87 %
26.02.2017 19:12 10,7 C 10,6 C 8,9 C 83 % 0 lf 1009,6 hPa 0,0 l/m 0 min 0 min 2 W/m 18,8 km/h (3 Bft) 97,87 %
26.02.2017 19:14 10,6 C 10,6 C 8,9 C 83 % 0 lf 1009,7 hPa 0,0 l/m 0 min 0 min 0 W/m 20,9 km/h (4 Bft) 95,65 %
26.02.2017 19:16 10,6 C 10,6 C 8,9 C 83 % 0 lf 1009,7 hPa 0,0 l/m 0 min 0 min 0 W/m 14,6 km/h (3 Bft) 95,74 %
26.02.2017 19:18 10,6 C 10,6 C 8,9 C 83 % 0 lf 1009,6 hPa 0,0 l/m 0 min 0 min 0 W/m 20,9 km/h (4 Bft) 97,87 %
26.02.2017 19:20 10,6 C 10,6 C 8,9 C 83 % 0 lf 1009,5 hPa 0,0 l/m 0 min 0 min 0 W/m 23,0 km/h (4 Bft) 93,62 %
26.02.2017 19:22 10,5 C 10,6 C 8,9 C 83 % 0 lf 1009,5 hPa 0,0 l/m 0 min 0 min 0 W/m 23,0 km/h (4 Bft) 95,74 %
26.02.2017 19:24 10,5 C 10,6 C 8,9 C 83 % 0 lf 1009,5 hPa 0,0 l/m 0 min 0 min 0 W/m 16,7 km/h (3 Bft) 93,62 %
26.02.2017 19:26 10,5 C 10,6 C 8,9 C 83 % 0 lf 1009,5 hPa 0,0 l/m 0 min 0 min 0 W/m 16,7 km/h (3 Bft) 93,62 %
26.02.2017 19:28 10,5 C 10,6 C 8,9 C 83 % 0 lf 1009,4 hPa 0,0 l/m 0 min 0 min 0 W/m 16,7 km/h (3 Bft) 95,65 %
26.02.2017 19:30 10,4 C 10,6 C 8,9 C 83 % 0 lf 1009,5 hPa 0,0 l/m 0 min 0 min 0 W/m 31,4 km/h (5 Bft) 95,74 %
26.02.2017 19:32 10,4 C 10,6 C 8,9 C 83 % 0 lf 1009,5 hPa 0,0 l/m 0 min 0 min 0 W/m 14,6 km/h (3 Bft) 95,74 %
26.02.2017 19:34 10,4 C 10,6 C 8,9 C 83 % 0 lf 1009,5 hPa 0,0 l/m 0 min 0 min 0 W/m 25,1 km/h (4 Bft) 97,87 %
26.02.2017 19:36 10,4 C 10,6 C 8,9 C 83 % 0 lf 1009,4 hPa 0,0 l/m 0 min 0 min 0 W/m 16,7 km/h (3 Bft) 95,74 %
26.02.2017 19:38 10,4 C 10,6 C 8,9 C 83 % 0 lf 1009,4 hPa 0,0 l/m 0 min 0 min 0 W/m 29,3 km/h (5 Bft) 97,83 %
26.02.2017 19:40 10,4 C 10,6 C 8,9 C 83 % 0 lf 1009,4 hPa 0,0 l/m 0 min 0 min 0 W/m 33,5 km/h (5 Bft) 97,87 %
26.02.2017 19:42 10,4 C 10,6 C 8,9 C 83 % 0 lf 1009,4 hPa 0,0 l/m 0 min 0 min 0 W/m 20,9 km/h (4 Bft) 97,87 %
26.02.2017 19:44 10,4 C 10,6 C 8,9 C 83 % 0 lf 1009,4 hPa 0,0 l/m 0 min 0 min 0 W/m 16,7 km/h (3 Bft) 93,62 %
26.02.2017 19:46 10,4 C 10,6 C 8,9 C 83 % 0 lf 1009,4 hPa 0,0 l/m 0 min 0 min 0 W/m 23,0 km/h (4 Bft) 95,74 %
26.02.2017 19:48 10,4 C 10,6 C 8,9 C 83 % 0 lf 1009,4 hPa 0,0 l/m 0 min 0 min 0 W/m 29,3 km/h (5 Bft) 95,74 %
26.02.2017 19:50 10,4 C 10,6 C 8,9 C 83 % 0 lf 1009,3 hPa 0,0 l/m 0 min 0 min 0 W/m 25,1 km/h (4 Bft) 97,83 %
26.02.2017 19:52 10,4 C 10,6 C 8,9 C 83 % 0 lf 1009,3 hPa 0,0 l/m 0 min 0 min 0 W/m 14,6 km/h (3 Bft) 95,74 %
26.02.2017 19:54 10,4 C 10,6 C 8,9 C 83 % 0 lf 1009,3 hPa 0,0 l/m 0 min 0 min 0 W/m 18,8 km/h (3 Bft) 100,00 %
26.02.2017 19:56 10,4 C 10,6 C 8,9 C 83 % 0 lf 1009,3 hPa 0,0 l/m 0 min 0 min 0 W/m 18,8 km/h (3 Bft) 100,00 %
26.02.2017 19:58 10,4 C 10,6 C 8,9 C 83 % 0 lf 1009,3 hPa 0,0 l/m 0 min 0 min 0 W/m 14,6 km/h (3 Bft) 97,87 %
26.02.2017 20:00 10,3 C 10,6 C 8,9 C 83 % 0 lf 1009,3 hPa 0,0 l/m 0 min 0 min 0 W/m 18,8 km/h (3 Bft) 100,00 %
26.02.2017 20:02 10,4 C 10,6 C 8,9 C 83 % 0 lf 1009,3 hPa 0,0 l/m 0 min 0 min 0 W/m 25,1 km/h (4 Bft) 93,48 %
26.02.2017 20:04 10,3 C 10,6 C 8,9 C 83 % 0 lf 1009,2 hPa 0,0 l/m 0 min 0 min 0 W/m 23,0 km/h (4 Bft) 100,00 %
26.02.2017 20:06 10,4 C 10,6 C 8,9 C 83 % 0 lf 1009,3 hPa 0,0 l/m 0 min 0 min 0 W/m 14,6 km/h (3 Bft) 97,87 %
26.02.2017 20:08 10,3 C 10,6 C 8,9 C 83 % 0 lf 1009,2 hPa 0,0 l/m 0 min 0 min 0 W/m 14,6 km/h (3 Bft) 100,00 %
26.02.2017 20:10 10,3 C 10,6 C 8,9 C 83 % 0 lf 1009,3 hPa 0,0 l/m 0 min 0 min 0 W/m 10,5 km/h (2 Bft) 100,00 %
26.02.2017 20:12 10,3 C 10,6 C 8,9 C 83 % 0 lf 1009,3 hPa 0,0 l/m 0 min 0 min 0 W/m 14,6 km/h (3 Bft) 100,00 %
26.02.2017 20:14 10,3 C 10,6 C 8,9 C 83 % 0 lf 1009,2 hPa 0,0 l/m 0 min 0 min 0 W/m 20,9 km/h (4 Bft) 100,00 %
26.02.2017 20:16 10,3 C 10,6 C 8,9 C 83 % 0 lf 1009,2 hPa 0,0 l/m 0 min 0 min 0 W/m 27,2 km/h (4 Bft) 100,00 %
26.02.2017 20:18 10,3 C 10,6 C 8,9 C 83 % 0 lf 1009,3 hPa 0,0 l/m 0 min 0 min 0 W/m 23,0 km/h (4 Bft) 100,00 %
26.02.2017 20:20 10,3 C 10,6 C 8,9 C 83 % 0 lf 1009,3 hPa 0,0 l/m 0 min 0 min 0 W/m 12,6 km/h (3 Bft) 100,00 %
26.02.2017 20:22 10,3 C 10,6 C 8,9 C 83 % 0 lf 1009,3 hPa 0,0 l/m 0 min 0 min 0 W/m 12,6 km/h (3 Bft) 97,87 %
26.02.2017 20:24 10,3 C 10,6 C 8,9 C 84 % 0 lf 1009,3 hPa 0,0 l/m 0 min 0 min 0 W/m 18,8 km/h (3 Bft) 95,65 %
26.02.2017 20:26 10,3 C 10,6 C 8,9 C 84 % 0 lf 1009,3 hPa 0,0 l/m 0 min 0 min 0 W/m 16,7 km/h (3 Bft) 95,74 %
26.02.2017 20:28 10,2 C 10,6 C 8,9 C 84 % 0 lf 1009,3 hPa 0,0 l/m 0 min 0 min 0 W/m 18,8 km/h (3 Bft) 97,87 %
26.02.2017 20:30 10,3 C 10,6 C 8,9 C 84 % 0 lf 1009,3 hPa 0,0 l/m 0 min 0 min 0 W/m 16,7 km/h (3 Bft) 93,62 %
26.02.2017 20:32 10,2 C 10,6 C 8,9 C 84 % 0 lf 1009,2 hPa 0,0 l/m 0 min 0 min 0 W/m 8,4 km/h (2 Bft) 93,62 %
26.02.2017 20:34 10,2 C 10,6 C 8,9 C 84 % 0 lf 1009,2 hPa 0,0 l/m 0 min 0 min 0 W/m 16,7 km/h (3 Bft) 97,87 %
26.02.2017 20:36 10,2 C 10,6 C 8,9 C 84 % 0 lf 1009,2 hPa 0,0 l/m 0 min 0 min 0 W/m 14,6 km/h (3 Bft) 91,30 %
26.02.2017 20:38 10,2 C 10,6 C 8,9 C 84 % 0 lf 1009,2 hPa 0,0 l/m 0 min 0 min 0 W/m 18,8 km/h (3 Bft) 97,87 %
26.02.2017 20:40 10,2 C 10,6 C 8,9 C 84 % 0 lf 1009,3 hPa 0,0 l/m 0 min 0 min 0 W/m 23,0 km/h (4 Bft) 97,87 %
26.02.2017 20:42 10,2 C 10,6 C 8,9 C 84 % 0 lf 1009,2 hPa 0,0 l/m 0 min 0 min 0 W/m 20,9 km/h (4 Bft) 93,62 %
26.02.2017 20:44 10,2 C 10,6 C 8,9 C 84 % 0 lf 1009,2 hPa 0,0 l/m 0 min 0 min 0 W/m 14,6 km/h (3 Bft) 95,74 %
26.02.2017 20:46 10,2 C 10,6 C 8,9 C 84 % 0 lf 1009,2 hPa 0,0 l/m 0 min 0 min 0 W/m 16,7 km/h (3 Bft) 93,62 %
26.02.2017 20:48 10,2 C 10,6 C 8,9 C 84 % 0 lf 1009,2 hPa 0,0 l/m 0 min 0 min 0 W/m 12,6 km/h (3 Bft) 95,65 %
26.02.2017 20:50 10,2 C 10,6 C 8,9 C 84 % 0 lf 1009,1 hPa 0,0 l/m 0 min 0 min 0 W/m 25,1 km/h (4 Bft) 95,74 %
26.02.2017 20:52 10,2 C 10,6 C 8,9 C 84 % 0 lf 1009,1 hPa 0,0 l/m 0 min 0 min 0 W/m 18,8 km/h (3 Bft) 91,49 %
26.02.2017 20:54 10,2 C 10,6 C 8,9 C 84 % 0 lf 1009,2 hPa 0,0 l/m 0 min 0 min 0 W/m 14,6 km/h (3 Bft) 93,62 %
26.02.2017 20:56 10,2 C 10,6 C 8,9 C 84 % 0 lf 1009,2 hPa 0,0 l/m 0 min 0 min 0 W/m 18,8 km/h (3 Bft) 95,74 %
26.02.2017 20:58 10,2 C 10,6 C 8,9 C 84 % 0 lf 1009,2 hPa 0,0 l/m 0 min 0 min 0 W/m 14,6 km/h (3 Bft) 91,49 %
26.02.2017 21:00 10,2 C 10,6 C 8,9 C 84 % 0 lf 1009,1 hPa 0,0 l/m 0 min 0 min 0 W/m 14,6 km/h (3 Bft) 93,48 %
26.02.2017 21:02 10,2 C 10,6 C 8,9 C 84 % 0 lf 1009,1 hPa 0,0 l/m 0 min 0 min 0 W/m 20,9 km/h (4 Bft) 93,62 %
26.02.2017 21:04 10,2 C 10,6 C 8,9 C 84 % 0 lf 1009,1 hPa 0,0 l/m 0 min 0 min 0 W/m 20,9 km/h (4 Bft) 95,74 %
26.02.2017 21:06 10,2 C 10,6 C 8,9 C 84 % 0 lf 1009,1 hPa 0,0 l/m 0 min 0 min 0 W/m 25,1 km/h (4 Bft) 95,74 %
26.02.2017 21:08 10,2 C 10,6 C 8,9 C 84 % 0 lf 1009,1 hPa 0,0 l/m 0 min 0 min 0 W/m 14,6 km/h (3 Bft) 93,62 %
26.02.2017 21:10 10,2 C 10,6 C 8,9 C 84 % 0 lf 1009,1 hPa 0,0 l/m 0 min 0 min 0 W/m 25,1 km/h (4 Bft) 93,62 %
26.02.2017 21:12 10,3 C 10,6 C 8,9 C 84 % 0 lf 1009,2 hPa 0,0 l/m 0 min 0 min 0 W/m 16,7 km/h (3 Bft) 91,30 %
26.02.2017 21:14 10,3 C 10,6 C 8,9 C 83 % 0 lf 1009,1 hPa 0,0 l/m 0 min 0 min 0 W/m 16,7 km/h (3 Bft) 91,49 %
26.02.2017 21:16 10,3 C 10,6 C 8,9 C 83 % 0 lf 1009,1 hPa 0,0 l/m 0 min 0 min 0 W/m 10,5 km/h (2 Bft) 93,62 %
26.02.2017 21:18 10,3 C 10,6 C 8,9 C 83 % 0 lf 1009,1 hPa 0,0 l/m 0 min 0 min 0 W/m 16,7 km/h (3 Bft) 93,62 %
26.02.2017 21:20 10,3 C 10,6 C 8,9 C 83 % 0 lf 1009,1 hPa 0,0 l/m 0 min 0 min 0 W/m 25,1 km/h (4 Bft) 91,49 %
26.02.2017 21:22 10,3 C 10,6 C 8,9 C 83 % 0 lf 1009,1 hPa 0,0 l/m 0 min 0 min 0 W/m 14,6 km/h (3 Bft) 93,62 %
26.02.2017 21:24 10,3 C 10,6 C 8,9 C 83 % 0 lf 1009,1 hPa 0,0 l/m 0 min 0 min 0 W/m 25,1 km/h (4 Bft) 91,30 %
26.02.2017 21:26 10,3 C 10,6 C 8,9 C 83 % 0 lf 1009,1 hPa 0,0 l/m 0 min 0 min 0 W/m 18,8 km/h (3 Bft) 91,49 %
26.02.2017 21:28 10,3 C 10,6 C 8,9 C 83 % 0 lf 1009,2 hPa 0,0 l/m 0 min 0 min 0 W/m 14,6 km/h (3 Bft) 85,11 %
26.02.2017 21:30 10,3 C 10,6 C 8,9 C 83 % 0 lf 1009,1 hPa 0,0 l/m 0 min 0 min 0 W/m 16,7 km/h (3 Bft) 93,62 %
26.02.2017 21:32 10,3 C 10,6 C 8,9 C 83 % 0 lf 1009,1 hPa 0,0 l/m 0 min 0 min 0 W/m 20,9 km/h (4 Bft) 91,49 %
26.02.2017 21:34 10,3 C 10,6 C 8,9 C 83 % 0 lf 1009,1 hPa 0,0 l/m 0 min 0 min 0 W/m 14,6 km/h (3 Bft) 93,62 %
26.02.2017 21:36 10,3 C 10,6 C 8,9 C 83 % 0 lf 1009,1 hPa 0,0 l/m 0 min 0 min 0 W/m 12,6 km/h (3 Bft) 95,65 %
26.02.2017 21:38 10,3 C 10,6 C 8,9 C 83 % 0 lf 1009,1 hPa 0,0 l/m 0 min 0 min 0 W/m 23,0 km/h (4 Bft) 95,74 %
26.02.2017 21:40 10,3 C 10,6 C 8,9 C 83 % 0 lf 1009,1 hPa 0,0 l/m 0 min 0 min 0 W/m 18,8 km/h (3 Bft) 89,36 %
26.02.2017 21:42 10,3 C 10,6 C 8,9 C 83 % 0 lf 1009,0 hPa 0,0 l/m 0 min 0 min 0 W/m 25,1 km/h (4 Bft) 89,36 %
26.02.2017 21:44 10,3 C 10,6 C 8,9 C 83 % 0 lf 1009,0 hPa 0,0 l/m 0 min 0 min 0 W/m 23,0 km/h (4 Bft) 87,23 %
26.02.2017 21:46 10,3 C 10,6 C 8,9 C 83 % 0 lf 1009,0 hPa 0,0 l/m 0 min 0 min 0 W/m 14,6 km/h (3 Bft) 91,30 %
26.02.2017 21:48 10,3 C 10,6 C 8,9 C 83 % 0 lf 1009,0 hPa 0,0 l/m 0 min 0 min 0 W/m 12,6 km/h (3 Bft) 97,87 %
26.02.2017 21:50 10,3 C 10,6 C 8,9 C 83 % 0 lf 1008,9 hPa 0,0 l/m 0 min 0 min 0 W/m 20,9 km/h (4 Bft) 95,74 %
26.02.2017 21:52 10,3 C 10,6 C 8,9 C 83 % 0 lf 1008,9 hPa 0,0 l/m 0 min 0 min 0 W/m 14,6 km/h (3 Bft) 95,74 %
26.02.2017 21:54 10,3 C 10,6 C 8,9 C 83 % 0 lf 1008,9 hPa 0,0 l/m 0 min 0 min 0 W/m 16,7 km/h (3 Bft) 97,87 %
26.02.2017 21:56 10,3 C 10,6 C 8,9 C 82 % 0 lf 1008,8 hPa 0,0 l/m 0 min 0 min 0 W/m 14,6 km/h (3 Bft) 95,74 %
26.02.2017 21:58 10,3 C 10,6 C 8,9 C 82 % 0 lf 1008,8 hPa 0,0 l/m 0 min 0 min 0 W/m 20,9 km/h (4 Bft) 97,83 %
26.02.2017 22:00 10,3 C 10,6 C 8,9 C 82 % 0 lf 1008,8 hPa 0,0 l/m 0 min 0 min 0 W/m 23,0 km/h (4 Bft) 97,87 %
26.02.2017 22:02 10,3 C 10,6 C 8,9 C 82 % 0 lf 1008,8 hPa 0,0 l/m 0 min 0 min 0 W/m 16,7 km/h (3 Bft) 95,74 %
26.02.2017 22:04 10,3 C 10,6 C 8,9 C 82 % 0 lf 1008,7 hPa 0,0 l/m 0 min 0 min 0 W/m 23,0 km/h (4 Bft) 95,74 %
26.02.2017 22:06 10,3 C 10,6 C 8,9 C 82 % 0 lf 1008,7 hPa 0,0 l/m 0 min 0 min 0 W/m 14,6 km/h (3 Bft) 95,74 %
26.02.2017 22:08 10,3 C 10,6 C 8,9 C 82 % 0 lf 1008,7 hPa 0,0 l/m 0 min 0 min 0 W/m 10,5 km/h (2 Bft) 95,74 %
26.02.2017 22:10 10,3 C 10,6 C 8,9 C 82 % 0 lf 1008,7 hPa 0,0 l/m 0 min 0 min 0 W/m 25,1 km/h (4 Bft) 95,65 %
26.02.2017 22:12 10,3 C 10,6 C 8,9 C 82 % 0 lf 1008,7 hPa 0,0 l/m 0 min 0 min 0 W/m 16,7 km/h (3 Bft) 97,87 %
26.02.2017 22:14 10,3 C 10,6 C 8,9 C 82 % 0 lf 1008,7 hPa 0,0 l/m 0 min 0 min 0 W/m 10,5 km/h (2 Bft) 100,00 %
26.02.2017 22:16 10,3 C 10,6 C 8,9 C 82 % 0 lf 1008,7 hPa 0,0 l/m 0 min 0 min 0 W/m 8,4 km/h (2 Bft) 97,87 %
26.02.2017 22:18 10,3 C 10,6 C 8,9 C 82 % 0 lf 1008,7 hPa 0,0 l/m 0 min 0 min 0 W/m 18,8 km/h (3 Bft) 100,00 %
26.02.2017 22:20 10,3 C 10,6 C 8,9 C 82 % 0 lf 1008,6 hPa 0,0 l/m 0 min 0 min 0 W/m 18,8 km/h (3 Bft) 95,74 %
26.02.2017 22:22 10,3 C 10,6 C 8,9 C 82 % 0 lf 1008,6 hPa 0,0 l/m 0 min 0 min 0 W/m 18,8 km/h (3 Bft) 100,00 %
26.02.2017 22:24 10,3 C 10,6 C 8,9 C 82 % 0 lf 1008,5 hPa 0,0 l/m 0 min 0 min 0 W/m 10,5 km/h (2 Bft) 100,00 %
26.02.2017 22:26 10,3 C 10,6 C 8,9 C 82 % 0 lf 1008,6 hPa 0,0 l/m 0 min 0 min 0 W/m 23,0 km/h (4 Bft) 97,87 %
26.02.2017 22:28 10,3 C 10,6 C 8,9 C 82 % 0 lf 1008,6 hPa 0,0 l/m 0 min 0 min 0 W/m 16,7 km/h (3 Bft) 97,87 %
26.02.2017 22:30 10,3 C 10,6 C 8,9 C 82 % 0 lf 1008,5 hPa 0,0 l/m 0 min 0 min 0 W/m 16,7 km/h (3 Bft) 97,87 %
26.02.2017 22:32 10,3 C 10,6 C 8,9 C 82 % 0 lf 1008,5 hPa 0,0 l/m 0 min 0 min 0 W/m 18,8 km/h (3 Bft) 100,00 %
26.02.2017 22:34 10,3 C 10,6 C 8,9 C 82 % 0 lf 1008,5 hPa 0,0 l/m 0 min 0 min 0 W/m 23,0 km/h (4 Bft) 100,00 %
26.02.2017 22:36 10,3 C 10,6 C 8,9 C 82 % 0 lf 1008,5 hPa 0,0 l/m 0 min 0 min 0 W/m 23,0 km/h (4 Bft) 95,74 %
26.02.2017 22:38 10,3 C 10,6 C 8,9 C 82 % 0 lf 1008,5 hPa 0,0 l/m 0 min 0 min 0 W/m 16,7 km/h (3 Bft) 97,87 %
26.02.2017 22:40 10,3 C 10,6 C 8,9 C 82 % 0 lf 1008,4 hPa 0,0 l/m 0 min 0 min 0 W/m 16,7 km/h (3 Bft) 100,00 %
26.02.2017 22:42 10,3 C 10,6 C 8,9 C 82 % 0 lf 1008,4 hPa 0,0 l/m 0 min 0 min 0 W/m 18,8 km/h (3 Bft) 100,00 %
26.02.2017 22:44 10,3 C 10,6 C 8,9 C 82 % 0 lf 1008,4 hPa 0,0 l/m 0 min 0 min 0 W/m 18,8 km/h (3 Bft) 95,74 %
26.02.2017 22:46 10,3 C 10,6 C 8,9 C 82 % 0 lf 1008,4 hPa 0,0 l/m 0 min 0 min 0 W/m 18,8 km/h (3 Bft) 100,00 %
26.02.2017 22:48 10,3 C 10,6 C 8,9 C 82 % 0 lf 1008,4 hPa 0,0 l/m 0 min 0 min 0 W/m 14,6 km/h (3 Bft) 100,00 %
26.02.2017 22:50 10,3 C 10,6 C 8,9 C 82 % 0 lf 1008,3 hPa 0,0 l/m 0 min 0 min 0 W/m 23,0 km/h (4 Bft) 97,87 %
26.02.2017 22:52 10,3 C 10,6 C 8,9 C 82 % 0 lf 1008,2 hPa 0,0 l/m 0 min 0 min 0 W/m 20,9 km/h (4 Bft) 93,62 %
26.02.2017 22:54 10,3 C 10,6 C 8,9 C 82 % 0 lf 1008,3 hPa 0,0 l/m 0 min 0 min 0 W/m 14,6 km/h (3 Bft) 100,00 %
26.02.2017 22:56 10,3 C 10,6 C 8,9 C 82 % 0 lf 1008,2 hPa 0,0 l/m 0 min 0 min 0 W/m 16,7 km/h (3 Bft) 97,83 %
26.02.2017 22:58 10,3 C 10,6 C 8,9 C 82 % 0 lf 1008,1 hPa 0,0 l/m 0 min 0 min 0 W/m 16,7 km/h (3 Bft) 97,87 %
26.02.2017 23:00 10,3 C 10,6 C 8,9 C 82 % 0 lf 1008,1 hPa 0,0 l/m 0 min 0 min 0 W/m 16,7 km/h (3 Bft) 95,74 %
26.02.2017 23:02 10,3 C 10,6 C 8,9 C 82 % 0 lf 1008,1 hPa 0,0 l/m 0 min 0 min 0 W/m 23,0 km/h (4 Bft) 100,00 %
26.02.2017 23:04 10,3 C 10,6 C 8,9 C 82 % 0 lf 1008,1 hPa 0,0 l/m 0 min 0 min 0 W/m 18,8 km/h (3 Bft) 100,00 %
26.02.2017 23:06 10,3 C 10,6 C 8,9 C 82 % 0 lf 1008,1 hPa 0,0 l/m 0 min 0 min 0 W/m 14,6 km/h (3 Bft) 97,87 %
26.02.2017 23:08 10,3 C 10,6 C 8,9 C 82 % 0 lf 1008,1 hPa 0,0 l/m 0 min 0 min 0 W/m 18,8 km/h (3 Bft) 97,83 %
26.02.2017 23:10 10,3 C 10,6 C 8,9 C 82 % 0 lf 1008,1 hPa 0,0 l/m 0 min 0 min 0 W/m 14,6 km/h (3 Bft) 97,87 %
26.02.2017 23:12 10,3 C 10,6 C 8,9 C 82 % 0 lf 1008,1 hPa 0,0 l/m 0 min 0 min 0 W/m 16,7 km/h (3 Bft) 95,74 %
26.02.2017 23:14 10,3 C 10,6 C 8,9 C 82 % 0 lf 1008,1 hPa 0,0 l/m 0 min 0 min 0 W/m 14,6 km/h (3 Bft) 97,87 %
26.02.2017 23:16 10,3 C 10,6 C 8,9 C 82 % 0 lf 1008,1 hPa 0,0 l/m 0 min 0 min 0 W/m 10,5 km/h (2 Bft) 95,74 %
26.02.2017 23:18 10,3 C 10,6 C 8,9 C 82 % 0 lf 1008,1 hPa 0,0 l/m 0 min 0 min 0 W/m 14,6 km/h (3 Bft) 95,74 %
26.02.2017 23:20 10,3 C 10,6 C 8,9 C 82 % 0 lf 1008,1 hPa 0,0 l/m 0 min 0 min 0 W/m 16,7 km/h (3 Bft) 97,83 %
26.02.2017 23:22 10,4 C 10,6 C 8,9 C 82 % 0 lf 1008,1 hPa 0,0 l/m 0 min 0 min 0 W/m 20,9 km/h (4 Bft) 97,87 %
26.02.2017 23:24 10,4 C 10,6 C 8,9 C 82 % 0 lf 1008,0 hPa 0,0 l/m 0 min 0 min 0 W/m 14,6 km/h (3 Bft) 97,87 %
26.02.2017 23:26 10,4 C 10,6 C 8,9 C 82 % 0 lf 1008,0 hPa 0,0 l/m 0 min 0 min 0 W/m 14,6 km/h (3 Bft) 95,74 %
26.02.2017 23:28 10,4 C 10,6 C 8,9 C 82 % 0 lf 1008,0 hPa 0,0 l/m 0 min 0 min 0 W/m 14,6 km/h (3 Bft) 97,87 %
26.02.2017 23:30 10,4 C 10,6 C 8,9 C 82 % 0 lf 1007,9 hPa 0,0 l/m 0 min 0 min 0 W/m 33,5 km/h (5 Bft) 97,87 %
26.02.2017 23:32 10,4 C 10,6 C 8,9 C 82 % 0 lf 1007,8 hPa 0,0 l/m 0 min 0 min 0 W/m 31,4 km/h (5 Bft) 97,83 %
26.02.2017 23:34 10,4 C 10,6 C 8,9 C 82 % 0 lf 1007,8 hPa 0,0 l/m 0 min 0 min 0 W/m 18,8 km/h (3 Bft) 95,74 %
26.02.2017 23:36 10,4 C 10,6 C 8,9 C 82 % 0 lf 1007,8 hPa 0,0 l/m 0 min 0 min 0 W/m 25,1 km/h (4 Bft) 95,74 %
26.02.2017 23:38 10,4 C 10,6 C 8,9 C 81 % 0 lf 1007,9 hPa 0,0 l/m 0 min 0 min 0 W/m 20,9 km/h (4 Bft) 95,74 %
26.02.2017 23:40 10,5 C 10,6 C 8,9 C 81 % 0 lf 1007,8 hPa 0,0 l/m 0 min 0 min 0 W/m 16,7 km/h (3 Bft) 97,87 %
26.02.2017 23:42 10,5 C 10,6 C 8,9 C 81 % 0 lf 1007,8 hPa 0,0 l/m 0 min 0 min 0 W/m 20,9 km/h (4 Bft) 97,87 %
26.02.2017 23:44 10,5 C 10,6 C 8,9 C 81 % 0 lf 1007,8 hPa 0,0 l/m 0 min 0 min 0 W/m 16,7 km/h (3 Bft) 95,65 %
26.02.2017 23:46 10,5 C 10,6 C 8,9 C 81 % 0 lf 1007,8 hPa 0,0 l/m 0 min 0 min 0 W/m 20,9 km/h (4 Bft) 95,74 %
26.02.2017 23:48 10,5 C 10,6 C 8,9 C 81 % 0 lf 1007,8 hPa 0,0 l/m 0 min 0 min 0 W/m 16,7 km/h (3 Bft) 97,87 %
26.02.2017 23:50 10,5 C 10,6 C 8,9 C 81 % 0 lf 1007,6 hPa 0,0 l/m 0 min 0 min 0 W/m 12,6 km/h (3 Bft) 97,87 %
26.02.2017 23:52 10,6 C 10,6 C 8,9 C 81 % 0 lf 1007,6 hPa 0,0 l/m 0 min 0 min 0 W/m 12,6 km/h (3 Bft) 95,74 %
26.02.2017 23:54 10,6 C 10,6 C 8,9 C 81 % 0 lf 1007,7 hPa 0,0 l/m 0 min 0 min 0 W/m 16,7 km/h (3 Bft) 97,87 %
26.02.2017 23:56 10,6 C 10,6 C 8,9 C 81 % 0 lf 1007,7 hPa 0,0 l/m 0 min 0 min 0 W/m 16,7 km/h (3 Bft) 97,83 %
26.02.2017 23:58 10,6 C 10,6 C 8,9 C 81 % 0 lf 1007,7 hPa 0,0 l/m 0 min 0 min 0 W/m 16,7 km/h (3 Bft) 95,74 %
_ Min-Zeit 00:00 00:00 00:00 01:54 00:00 23:50 - - - - 20:32 21:28
Minimum _ 7,1 C 7,2 C 5,6 C 72 % 0 lf 1007,6 hPa - - - - 8,4 km/h (2 Bft) 85,11 %
_ Max-Zeit 14:56 12:52 14:52 20:24 07:06 00:00 00:00 09:36 03:46 13:10 10:20 00:30
Maximum _ 13,1 C 20,0 C 14,4 C 84 % 3 lf 1013,7 hPa 0,0 l/m 2 min 2 min 981 W/m 48,1 km/h
W-SW (6 Bft)
100,00 %
Durchschnitt _ 9,5 C 10,7 C 8,4 C 77 % 0 lf 1010,5 hPa #0,0 l/m #4:18 h #18 min. 136 W/m 23,5 km/h (4 Bft) 96,00 %
© 2017 W. Hausmann